Index of /20260507/WXO-DD/model_rdps/10km/18/075
Name Last modified Size Description
Parent Directory -
20260506T18Z_MSC_RDPS_AbsoluteVorticity_IsbL-0250_RLatLon0.09_PT075H.grib2 2026-05-07 03:00 603K
20260506T18Z_MSC_RDPS_AbsoluteVorticity_IsbL-0500_RLatLon0.09_PT075H.grib2 2026-05-07 03:00 563K
20260506T18Z_MSC_RDPS_AbsoluteVorticity_IsbL-0700_RLatLon0.09_PT075H.grib2 2026-05-07 03:00 627K
20260506T18Z_MSC_RDPS_AbsoluteVorticity_IsbL-0850_RLatLon0.09_PT075H.grib2 2026-05-07 03:00 791K
20260506T18Z_MSC_RDPS_AirTemp_AGL-120m_RLatLon0.09_PT075H.grib2 2026-05-07 03:00 376K
20260506T18Z_MSC_RDPS_AirTemp_AGL-2m_RLatLon0.09_PT075H.grib2 2026-05-07 03:00 626K
20260506T18Z_MSC_RDPS_AirTemp_AGL-40m_RLatLon0.09_PT075H.grib2 2026-05-07 03:00 384K
20260506T18Z_MSC_RDPS_AirTemp_AGL-80m_RLatLon0.09_PT075H.grib2 2026-05-07 03:00 379K
20260506T18Z_MSC_RDPS_AirTemp_IsbL-0001_RLatLon0.09_PT075H.grib2 2026-05-07 03:00 322K
20260506T18Z_MSC_RDPS_AirTemp_IsbL-0005_RLatLon0.09_PT075H.grib2 2026-05-07 03:00 380K
20260506T18Z_MSC_RDPS_AirTemp_IsbL-0010_RLatLon0.09_PT075H.grib2 2026-05-07 03:00 394K
20260506T18Z_MSC_RDPS_AirTemp_IsbL-0020_RLatLon0.09_PT075H.grib2 2026-05-07 03:00 317K
20260506T18Z_MSC_RDPS_AirTemp_IsbL-0030_RLatLon0.09_PT075H.grib2 2026-05-07 03:00 338K
20260506T18Z_MSC_RDPS_AirTemp_IsbL-0050_RLatLon0.09_PT075H.grib2 2026-05-07 03:00 309K
20260506T18Z_MSC_RDPS_AirTemp_IsbL-0100_RLatLon0.09_PT075H.grib2 2026-05-07 03:00 427K
20260506T18Z_MSC_RDPS_AirTemp_IsbL-0150_RLatLon0.09_PT075H.grib2 2026-05-07 03:00 415K
20260506T18Z_MSC_RDPS_AirTemp_IsbL-0175_RLatLon0.09_PT075H.grib2 2026-05-07 03:00 410K
20260506T18Z_MSC_RDPS_AirTemp_IsbL-0200_RLatLon0.09_PT075H.grib2 2026-05-07 03:00 414K
20260506T18Z_MSC_RDPS_AirTemp_IsbL-0225_RLatLon0.09_PT075H.grib2 2026-05-07 03:00 414K
20260506T18Z_MSC_RDPS_AirTemp_IsbL-0250_RLatLon0.09_PT075H.grib2 2026-05-07 03:00 422K
20260506T18Z_MSC_RDPS_AirTemp_IsbL-0275_RLatLon0.09_PT075H.grib2 2026-05-07 03:00 402K
20260506T18Z_MSC_RDPS_AirTemp_IsbL-0300_RLatLon0.09_PT075H.grib2 2026-05-07 03:00 432K
20260506T18Z_MSC_RDPS_AirTemp_IsbL-0350_RLatLon0.09_PT075H.grib2 2026-05-07 03:00 420K
20260506T18Z_MSC_RDPS_AirTemp_IsbL-0400_RLatLon0.09_PT075H.grib2 2026-05-07 03:00 423K
20260506T18Z_MSC_RDPS_AirTemp_IsbL-0450_RLatLon0.09_PT075H.grib2 2026-05-07 03:00 431K
20260506T18Z_MSC_RDPS_AirTemp_IsbL-0500_RLatLon0.09_PT075H.grib2 2026-05-07 03:00 444K
20260506T18Z_MSC_RDPS_AirTemp_IsbL-0550_RLatLon0.09_PT075H.grib2 2026-05-07 03:00 464K
20260506T18Z_MSC_RDPS_AirTemp_IsbL-0600_RLatLon0.09_PT075H.grib2 2026-05-07 03:00 484K
20260506T18Z_MSC_RDPS_AirTemp_IsbL-0650_RLatLon0.09_PT075H.grib2 2026-05-07 03:00 502K
20260506T18Z_MSC_RDPS_AirTemp_IsbL-0700_RLatLon0.09_PT075H.grib2 2026-05-07 03:00 532K
20260506T18Z_MSC_RDPS_AirTemp_IsbL-0750_RLatLon0.09_PT075H.grib2 2026-05-07 03:00 535K
20260506T18Z_MSC_RDPS_AirTemp_IsbL-0800_RLatLon0.09_PT075H.grib2 2026-05-07 03:00 584K
20260506T18Z_MSC_RDPS_AirTemp_IsbL-0850_RLatLon0.09_PT075H.grib2 2026-05-07 03:00 509K
20260506T18Z_MSC_RDPS_AirTemp_IsbL-0875_RLatLon0.09_PT075H.grib2 2026-05-07 03:00 526K
20260506T18Z_MSC_RDPS_AirTemp_IsbL-0900_RLatLon0.09_PT075H.grib2 2026-05-07 03:00 531K
20260506T18Z_MSC_RDPS_AirTemp_IsbL-0925_RLatLon0.09_PT075H.grib2 2026-05-07 03:00 531K
20260506T18Z_MSC_RDPS_AirTemp_IsbL-0950_RLatLon0.09_PT075H.grib2 2026-05-07 03:00 530K
20260506T18Z_MSC_RDPS_AirTemp_IsbL-0970_RLatLon0.09_PT075H.grib2 2026-05-07 03:00 526K
20260506T18Z_MSC_RDPS_AirTemp_IsbL-0985_RLatLon0.09_PT075H.grib2 2026-05-07 03:00 510K
20260506T18Z_MSC_RDPS_AirTemp_IsbL-1000_RLatLon0.09_PT075H.grib2 2026-05-07 03:00 500K
20260506T18Z_MSC_RDPS_AirTemp_IsbL-1015_RLatLon0.09_PT075H.grib2 2026-05-07 03:00 510K
20260506T18Z_MSC_RDPS_Albedo_Sfc_RLatLon0.09_PT075H.grib2 2026-05-07 03:00 161K
20260506T18Z_MSC_RDPS_CAPE_Sfc_RLatLon0.09_PT075H.grib2 2026-05-07 03:00 1.8M
20260506T18Z_MSC_RDPS_CIN_Sfc_RLatLon0.09_PT075H.grib2 2026-05-07 03:00 1.3M
20260506T18Z_MSC_RDPS_CloudWater_EAtm_RLatLon0.09_PT075H.grib2 2026-05-07 03:00 230K
20260506T18Z_MSC_RDPS_ConvectivePrecip-Accum_Sfc_RLatLon0.09_PT075H.grib2 2026-05-07 03:00 1.3M
20260506T18Z_MSC_RDPS_DewPointDepression_AGL-2m_RLatLon0.09_PT075H.grib2 2026-05-07 03:00 417K
20260506T18Z_MSC_RDPS_DewPointDepression_IsbL-0001_RLatLon0.09_PT075H.grib2 2026-05-07 03:00 193
20260506T18Z_MSC_RDPS_DewPointDepression_IsbL-0005_RLatLon0.09_PT075H.grib2 2026-05-07 03:00 193
20260506T18Z_MSC_RDPS_DewPointDepression_IsbL-0010_RLatLon0.09_PT075H.grib2 2026-05-07 03:00 193
20260506T18Z_MSC_RDPS_DewPointDepression_IsbL-0020_RLatLon0.09_PT075H.grib2 2026-05-07 03:00 193
20260506T18Z_MSC_RDPS_DewPointDepression_IsbL-0030_RLatLon0.09_PT075H.grib2 2026-05-07 03:00 193
20260506T18Z_MSC_RDPS_DewPointDepression_IsbL-0050_RLatLon0.09_PT075H.grib2 2026-05-07 03:00 78K
20260506T18Z_MSC_RDPS_DewPointDepression_IsbL-0100_RLatLon0.09_PT075H.grib2 2026-05-07 03:00 110K
20260506T18Z_MSC_RDPS_DewPointDepression_IsbL-0150_RLatLon0.09_PT075H.grib2 2026-05-07 03:00 145K
20260506T18Z_MSC_RDPS_DewPointDepression_IsbL-0175_RLatLon0.09_PT075H.grib2 2026-05-07 03:00 178K
20260506T18Z_MSC_RDPS_DewPointDepression_IsbL-0200_RLatLon0.09_PT075H.grib2 2026-05-07 03:00 224K
20260506T18Z_MSC_RDPS_DewPointDepression_IsbL-0225_RLatLon0.09_PT075H.grib2 2026-05-07 03:00 266K
20260506T18Z_MSC_RDPS_DewPointDepression_IsbL-0250_RLatLon0.09_PT075H.grib2 2026-05-07 03:00 305K
20260506T18Z_MSC_RDPS_DewPointDepression_IsbL-0275_RLatLon0.09_PT075H.grib2 2026-05-07 03:00 311K
20260506T18Z_MSC_RDPS_DewPointDepression_IsbL-0300_RLatLon0.09_PT075H.grib2 2026-05-07 03:00 324K
20260506T18Z_MSC_RDPS_DewPointDepression_IsbL-0350_RLatLon0.09_PT075H.grib2 2026-05-07 03:00 328K
20260506T18Z_MSC_RDPS_DewPointDepression_IsbL-0400_RLatLon0.09_PT075H.grib2 2026-05-07 03:00 337K
20260506T18Z_MSC_RDPS_DewPointDepression_IsbL-0450_RLatLon0.09_PT075H.grib2 2026-05-07 03:00 340K
20260506T18Z_MSC_RDPS_DewPointDepression_IsbL-0500_RLatLon0.09_PT075H.grib2 2026-05-07 03:00 344K
20260506T18Z_MSC_RDPS_DewPointDepression_IsbL-0550_RLatLon0.09_PT075H.grib2 2026-05-07 03:00 358K
20260506T18Z_MSC_RDPS_DewPointDepression_IsbL-0600_RLatLon0.09_PT075H.grib2 2026-05-07 03:00 375K
20260506T18Z_MSC_RDPS_DewPointDepression_IsbL-0650_RLatLon0.09_PT075H.grib2 2026-05-07 03:00 388K
20260506T18Z_MSC_RDPS_DewPointDepression_IsbL-0700_RLatLon0.09_PT075H.grib2 2026-05-07 03:00 402K
20260506T18Z_MSC_RDPS_DewPointDepression_IsbL-0750_RLatLon0.09_PT075H.grib2 2026-05-07 03:00 426K
20260506T18Z_MSC_RDPS_DewPointDepression_IsbL-0800_RLatLon0.09_PT075H.grib2 2026-05-07 03:00 459K
20260506T18Z_MSC_RDPS_DewPointDepression_IsbL-0850_RLatLon0.09_PT075H.grib2 2026-05-07 03:00 483K
20260506T18Z_MSC_RDPS_DewPointDepression_IsbL-0875_RLatLon0.09_PT075H.grib2 2026-05-07 03:00 476K
20260506T18Z_MSC_RDPS_DewPointDepression_IsbL-0900_RLatLon0.09_PT075H.grib2 2026-05-07 03:00 463K
20260506T18Z_MSC_RDPS_DewPointDepression_IsbL-0925_RLatLon0.09_PT075H.grib2 2026-05-07 03:00 451K
20260506T18Z_MSC_RDPS_DewPointDepression_IsbL-0950_RLatLon0.09_PT075H.grib2 2026-05-07 03:00 438K
20260506T18Z_MSC_RDPS_DewPointDepression_IsbL-0970_RLatLon0.09_PT075H.grib2 2026-05-07 03:00 431K
20260506T18Z_MSC_RDPS_DewPointDepression_IsbL-0985_RLatLon0.09_PT075H.grib2 2026-05-07 03:00 424K
20260506T18Z_MSC_RDPS_DewPointDepression_IsbL-1000_RLatLon0.09_PT075H.grib2 2026-05-07 03:00 420K
20260506T18Z_MSC_RDPS_DewPointDepression_IsbL-1015_RLatLon0.09_PT075H.grib2 2026-05-07 03:00 411K
20260506T18Z_MSC_RDPS_DewPoint_AGL-2m_RLatLon0.09_PT075H.grib2 2026-05-07 03:00 393K
20260506T18Z_MSC_RDPS_DownwardLongwaveRadiationFlux-Accum_Sfc_RLatLon0.09_PT075H.grib2 2026-05-07 03:00 432K
20260506T18Z_MSC_RDPS_DownwardShortwaveRadiationFlux-Accum_NTAtm_RLatLon0.09_PT075H.grib2 2026-05-07 03:00 164K
20260506T18Z_MSC_RDPS_DownwardShortwaveRadiationFlux-Accum_Sfc_RLatLon0.09_PT075H.grib2 2026-05-07 03:00 642K
20260506T18Z_MSC_RDPS_FreezingRain-Accum1h_Sfc_RLatLon0.09_PT075H.grib2 2026-05-07 03:00 21K
20260506T18Z_MSC_RDPS_FreezingRain-Accum3h_Sfc_RLatLon0.09_PT075H.grib2 2026-05-07 03:00 22K
20260506T18Z_MSC_RDPS_FreezingRain-Accum_Sfc_RLatLon0.09_PT075H.grib2 2026-05-07 03:00 203K
20260506T18Z_MSC_RDPS_GeopotentialHeight_IsbL-0001_RLatLon0.09_PT075H.grib2 2026-05-07 03:00 249K
20260506T18Z_MSC_RDPS_GeopotentialHeight_IsbL-0005_RLatLon0.09_PT075H.grib2 2026-05-07 03:00 310K
20260506T18Z_MSC_RDPS_GeopotentialHeight_IsbL-0010_RLatLon0.09_PT075H.grib2 2026-05-07 03:00 312K
20260506T18Z_MSC_RDPS_GeopotentialHeight_IsbL-0020_RLatLon0.09_PT075H.grib2 2026-05-07 03:00 311K
20260506T18Z_MSC_RDPS_GeopotentialHeight_IsbL-0030_RLatLon0.09_PT075H.grib2 2026-05-07 03:00 311K
20260506T18Z_MSC_RDPS_GeopotentialHeight_IsbL-0050_RLatLon0.09_PT075H.grib2 2026-05-07 03:00 311K
20260506T18Z_MSC_RDPS_GeopotentialHeight_IsbL-0100_RLatLon0.09_PT075H.grib2 2026-05-07 03:00 287K
20260506T18Z_MSC_RDPS_GeopotentialHeight_IsbL-0150_RLatLon0.09_PT075H.grib2 2026-05-07 03:00 230K
20260506T18Z_MSC_RDPS_GeopotentialHeight_IsbL-0175_RLatLon0.09_PT075H.grib2 2026-05-07 03:00 234K
20260506T18Z_MSC_RDPS_GeopotentialHeight_IsbL-0200_RLatLon0.09_PT075H.grib2 2026-05-07 03:00 235K
20260506T18Z_MSC_RDPS_GeopotentialHeight_IsbL-0225_RLatLon0.09_PT075H.grib2 2026-05-07 03:00 268K
20260506T18Z_MSC_RDPS_GeopotentialHeight_IsbL-0250_RLatLon0.09_PT075H.grib2 2026-05-07 03:00 268K
20260506T18Z_MSC_RDPS_GeopotentialHeight_IsbL-0275_RLatLon0.09_PT075H.grib2 2026-05-07 03:00 237K
20260506T18Z_MSC_RDPS_GeopotentialHeight_IsbL-0300_RLatLon0.09_PT075H.grib2 2026-05-07 03:00 236K
20260506T18Z_MSC_RDPS_GeopotentialHeight_IsbL-0350_RLatLon0.09_PT075H.grib2 2026-05-07 03:00 232K
20260506T18Z_MSC_RDPS_GeopotentialHeight_IsbL-0400_RLatLon0.09_PT075H.grib2 2026-05-07 03:00 228K
20260506T18Z_MSC_RDPS_GeopotentialHeight_IsbL-0450_RLatLon0.09_PT075H.grib2 2026-05-07 03:00 296K
20260506T18Z_MSC_RDPS_GeopotentialHeight_IsbL-0500_RLatLon0.09_PT075H.grib2 2026-05-07 03:00 291K
20260506T18Z_MSC_RDPS_GeopotentialHeight_IsbL-0550_RLatLon0.09_PT075H.grib2 2026-05-07 03:00 288K
20260506T18Z_MSC_RDPS_GeopotentialHeight_IsbL-0600_RLatLon0.09_PT075H.grib2 2026-05-07 03:00 285K
20260506T18Z_MSC_RDPS_GeopotentialHeight_IsbL-0650_RLatLon0.09_PT075H.grib2 2026-05-07 03:00 258K
20260506T18Z_MSC_RDPS_GeopotentialHeight_IsbL-0700_RLatLon0.09_PT075H.grib2 2026-05-07 03:00 257K
20260506T18Z_MSC_RDPS_GeopotentialHeight_IsbL-0750_RLatLon0.09_PT075H.grib2 2026-05-07 03:00 260K
20260506T18Z_MSC_RDPS_GeopotentialHeight_IsbL-0800_RLatLon0.09_PT075H.grib2 2026-05-07 03:00 266K
20260506T18Z_MSC_RDPS_GeopotentialHeight_IsbL-0850_RLatLon0.09_PT075H.grib2 2026-05-07 03:00 272K
20260506T18Z_MSC_RDPS_GeopotentialHeight_IsbL-0875_RLatLon0.09_PT075H.grib2 2026-05-07 03:00 274K
20260506T18Z_MSC_RDPS_GeopotentialHeight_IsbL-0900_RLatLon0.09_PT075H.grib2 2026-05-07 03:00 278K
20260506T18Z_MSC_RDPS_GeopotentialHeight_IsbL-0925_RLatLon0.09_PT075H.grib2 2026-05-07 03:00 282K
20260506T18Z_MSC_RDPS_GeopotentialHeight_IsbL-0950_RLatLon0.09_PT075H.grib2 2026-05-07 03:00 286K
20260506T18Z_MSC_RDPS_GeopotentialHeight_IsbL-0970_RLatLon0.09_PT075H.grib2 2026-05-07 03:00 292K
20260506T18Z_MSC_RDPS_GeopotentialHeight_IsbL-0985_RLatLon0.09_PT075H.grib2 2026-05-07 03:00 299K
20260506T18Z_MSC_RDPS_GeopotentialHeight_IsbL-1000_RLatLon0.09_PT075H.grib2 2026-05-07 03:00 308K
20260506T18Z_MSC_RDPS_GeopotentialHeight_IsbL-1015_RLatLon0.09_PT075H.grib2 2026-05-07 03:00 320K
20260506T18Z_MSC_RDPS_Humidex_Sfc_RLatLon0.09_PT075H.grib2 2026-05-07 03:00 2.4M
20260506T18Z_MSC_RDPS_IcePellets-Accum1h_Sfc_RLatLon0.09_PT075H.grib2 2026-05-07 03:00 4.8K
20260506T18Z_MSC_RDPS_IcePellets-Accum3h_Sfc_RLatLon0.09_PT075H.grib2 2026-05-07 03:00 5.1K
20260506T18Z_MSC_RDPS_IcePellets-Accum_Sfc_RLatLon0.09_PT075H.grib2 2026-05-07 03:00 29K
20260506T18Z_MSC_RDPS_KIndex_Sfc_RLatLon0.09_PT075H.grib2 2026-05-07 03:00 2.5M
20260506T18Z_MSC_RDPS_LatentHeatNetFlux_Sfc_RLatLon0.09_PT075H.grib2 2026-05-07 03:00 317K
20260506T18Z_MSC_RDPS_LiftedIndex-MU-VT_IsbL-0500_RLatLon0.09_PT075H.grib2 2026-05-07 03:00 2.4M
20260506T18Z_MSC_RDPS_NetLongwaveRadiationFlux-Accum_Sfc_RLatLon0.09_PT075H.grib2 2026-05-07 03:00 481K
20260506T18Z_MSC_RDPS_NetShortwaveRadiationFlux-Accum_Sfc_RLatLon0.09_PT075H.grib2 2026-05-07 03:00 643K
20260506T18Z_MSC_RDPS_PlanetaryBoundaryLayerHeight_Sfc_RLatLon0.09_PT075H.grib2 2026-05-07 03:00 1.0M
20260506T18Z_MSC_RDPS_Precip-Accum1h_Sfc_RLatLon0.09_PT075H.grib2 2026-05-07 03:00 1.2M
20260506T18Z_MSC_RDPS_Precip-Accum3h_Sfc_RLatLon0.09_PT075H.grib2 2026-05-07 03:00 1.3M
20260506T18Z_MSC_RDPS_Precip-Accum_Sfc_RLatLon0.09_PT075H.grib2 2026-05-07 03:00 2.2M
20260506T18Z_MSC_RDPS_PrecipRate_Sfc_RLatLon0.09_PT075H.grib2 2026-05-07 03:00 196K
20260506T18Z_MSC_RDPS_PrecipType-Instant_Sfc_RLatLon0.09_PT075H.grib2 2026-05-07 03:00 600K
20260506T18Z_MSC_RDPS_Pressure-Trend3h_Sfc_RLatLon0.09_PT075H.grib2 2026-05-07 03:00 1.2M
20260506T18Z_MSC_RDPS_Pressure_MSL_RLatLon0.09_PT075H.grib2 2026-05-07 03:00 331K
20260506T18Z_MSC_RDPS_Pressure_PVU-1.5_RLatLon0.09_PT075H.grib2 2026-05-07 03:00 2.3M
20260506T18Z_MSC_RDPS_Pressure_PVU-1_RLatLon0.09_PT075H.grib2 2026-05-07 03:00 2.4M
20260506T18Z_MSC_RDPS_Pressure_PVU-2_RLatLon0.09_PT075H.grib2 2026-05-07 03:00 2.3M
20260506T18Z_MSC_RDPS_Pressure_Sfc_RLatLon0.09_PT075H.grib2 2026-05-07 03:00 498K
20260506T18Z_MSC_RDPS_RadiativeTemp_Sfc_RLatLon0.09_PT075H.grib2 2026-05-07 03:00 328K
20260506T18Z_MSC_RDPS_Rain-Accum1h_Sfc_RLatLon0.09_PT075H.grib2 2026-05-07 03:00 652K
20260506T18Z_MSC_RDPS_Rain-Accum3h_Sfc_RLatLon0.09_PT075H.grib2 2026-05-07 03:00 743K
20260506T18Z_MSC_RDPS_Rain-Accum_Sfc_RLatLon0.09_PT075H.grib2 2026-05-07 03:00 1.8M
20260506T18Z_MSC_RDPS_RelativeHumidity_AGL-2m_RLatLon0.09_PT075H.grib2 2026-05-07 03:00 1.0M
20260506T18Z_MSC_RDPS_RelativeHumidity_IsbL-0010_RLatLon0.09_PT075H.grib2 2026-05-07 03:00 585K
20260506T18Z_MSC_RDPS_RelativeHumidity_IsbL-0020_RLatLon0.09_PT075H.grib2 2026-05-07 03:00 633K
20260506T18Z_MSC_RDPS_RelativeHumidity_IsbL-0030_RLatLon0.09_PT075H.grib2 2026-05-07 03:00 629K
20260506T18Z_MSC_RDPS_RelativeHumidity_IsbL-0050_RLatLon0.09_PT075H.grib2 2026-05-07 03:00 354K
20260506T18Z_MSC_RDPS_RelativeHumidity_IsbL-0100_RLatLon0.09_PT075H.grib2 2026-05-07 03:00 278K
20260506T18Z_MSC_RDPS_RelativeHumidity_IsbL-0150_RLatLon0.09_PT075H.grib2 2026-05-07 03:00 414K
20260506T18Z_MSC_RDPS_RelativeHumidity_IsbL-0175_RLatLon0.09_PT075H.grib2 2026-05-07 03:00 473K
20260506T18Z_MSC_RDPS_RelativeHumidity_IsbL-0200_RLatLon0.09_PT075H.grib2 2026-05-07 03:00 548K
20260506T18Z_MSC_RDPS_RelativeHumidity_IsbL-0225_RLatLon0.09_PT075H.grib2 2026-05-07 03:00 620K
20260506T18Z_MSC_RDPS_RelativeHumidity_IsbL-0250_RLatLon0.09_PT075H.grib2 2026-05-07 03:00 691K
20260506T18Z_MSC_RDPS_RelativeHumidity_IsbL-0275_RLatLon0.09_PT075H.grib2 2026-05-07 03:00 717K
20260506T18Z_MSC_RDPS_RelativeHumidity_IsbL-0300_RLatLon0.09_PT075H.grib2 2026-05-07 03:00 755K
20260506T18Z_MSC_RDPS_RelativeHumidity_IsbL-0350_RLatLon0.09_PT075H.grib2 2026-05-07 03:00 770K
20260506T18Z_MSC_RDPS_RelativeHumidity_IsbL-0400_RLatLon0.09_PT075H.grib2 2026-05-07 03:00 783K
20260506T18Z_MSC_RDPS_RelativeHumidity_IsbL-0450_RLatLon0.09_PT075H.grib2 2026-05-07 03:00 788K
20260506T18Z_MSC_RDPS_RelativeHumidity_IsbL-0500_RLatLon0.09_PT075H.grib2 2026-05-07 03:00 796K
20260506T18Z_MSC_RDPS_RelativeHumidity_IsbL-0550_RLatLon0.09_PT075H.grib2 2026-05-07 03:00 815K
20260506T18Z_MSC_RDPS_RelativeHumidity_IsbL-0600_RLatLon0.09_PT075H.grib2 2026-05-07 03:00 839K
20260506T18Z_MSC_RDPS_RelativeHumidity_IsbL-0650_RLatLon0.09_PT075H.grib2 2026-05-07 03:00 858K
20260506T18Z_MSC_RDPS_RelativeHumidity_IsbL-0700_RLatLon0.09_PT075H.grib2 2026-05-07 03:00 898K
20260506T18Z_MSC_RDPS_RelativeHumidity_IsbL-0750_RLatLon0.09_PT075H.grib2 2026-05-07 03:00 948K
20260506T18Z_MSC_RDPS_RelativeHumidity_IsbL-0800_RLatLon0.09_PT075H.grib2 2026-05-07 03:00 1.0M
20260506T18Z_MSC_RDPS_RelativeHumidity_IsbL-0850_RLatLon0.09_PT075H.grib2 2026-05-07 03:00 1.0M
20260506T18Z_MSC_RDPS_RelativeHumidity_IsbL-0875_RLatLon0.09_PT075H.grib2 2026-05-07 03:00 1.1M
20260506T18Z_MSC_RDPS_RelativeHumidity_IsbL-0900_RLatLon0.09_PT075H.grib2 2026-05-07 03:00 1.1M
20260506T18Z_MSC_RDPS_RelativeHumidity_IsbL-0925_RLatLon0.09_PT075H.grib2 2026-05-07 03:00 1.1M
20260506T18Z_MSC_RDPS_RelativeHumidity_IsbL-0950_RLatLon0.09_PT075H.grib2 2026-05-07 03:00 1.1M
20260506T18Z_MSC_RDPS_RelativeHumidity_IsbL-0970_RLatLon0.09_PT075H.grib2 2026-05-07 03:00 1.0M
20260506T18Z_MSC_RDPS_RelativeHumidity_IsbL-0985_RLatLon0.09_PT075H.grib2 2026-05-07 03:00 1.0M
20260506T18Z_MSC_RDPS_RelativeHumidity_IsbL-1000_RLatLon0.09_PT075H.grib2 2026-05-07 03:00 1.0M
20260506T18Z_MSC_RDPS_RelativeHumidity_IsbL-1015_RLatLon0.09_PT075H.grib2 2026-05-07 03:00 1.0M
20260506T18Z_MSC_RDPS_Runoff-Accum_Sfc_RLatLon0.09_PT075H.grib2 2026-05-07 03:00 69K
20260506T18Z_MSC_RDPS_SWEATIndex_Sfc_RLatLon0.09_PT075H.grib2 2026-05-07 03:00 2.5M
20260506T18Z_MSC_RDPS_SeeingIndex_EAtm_RLatLon0.09_PT075H.grib2 2026-05-07 03:00 1.0M
20260506T18Z_MSC_RDPS_SensibleHeatNetFlux_Sfc_RLatLon0.09_PT075H.grib2 2026-05-07 03:00 362K
20260506T18Z_MSC_RDPS_ShowalterIndex_IsbL-0500_RLatLon0.09_PT075H.grib2 2026-05-07 03:00 2.6M
20260506T18Z_MSC_RDPS_SkyTransparencyIndex_EAtm_RLatLon0.09_PT075H.grib2 2026-05-07 03:00 697K
20260506T18Z_MSC_RDPS_Snow-Accum1h_Sfc_RLatLon0.09_PT075H.grib2 2026-05-07 03:00 435K
20260506T18Z_MSC_RDPS_Snow-Accum3h_Sfc_RLatLon0.09_PT075H.grib2 2026-05-07 03:00 391K
20260506T18Z_MSC_RDPS_Snow-Accum_Sfc_RLatLon0.09_PT075H.grib2 2026-05-07 03:00 741K
20260506T18Z_MSC_RDPS_SnowDensity_Sfc_RLatLon0.09_PT075H.grib2 2026-05-07 03:00 175K
20260506T18Z_MSC_RDPS_SnowDepth_Sfc_RLatLon0.09_PT075H.grib2 2026-05-07 03:00 626K
20260506T18Z_MSC_RDPS_SoilTemp_DBS-0to10cm_RLatLon0.09_PT075H.grib2 2026-05-07 03:00 247K
20260506T18Z_MSC_RDPS_SoilTemp_Sfc_RLatLon0.09_PT075H.grib2 2026-05-07 03:00 292K
20260506T18Z_MSC_RDPS_SoilVolumetricIceContent_Sfc_RLatLon0.09_PT075H.grib2 2026-05-07 03:00 144K
20260506T18Z_MSC_RDPS_SoilVolumetricWaterContent_DBS-0to10cm_RLatLon0.09_PT075H.grib2 2026-05-07 03:00 291K
20260506T18Z_MSC_RDPS_SoilVolumetricWaterContent_DBS-0to1cm_RLatLon0.09_PT075H.grib2 2026-05-07 03:00 342K
20260506T18Z_MSC_RDPS_SpecificHumidity_AGL-120m_RLatLon0.09_PT075H.grib2 2026-05-07 03:00 505K
20260506T18Z_MSC_RDPS_SpecificHumidity_AGL-2m_RLatLon0.09_PT075H.grib2 2026-05-07 03:00 675K
20260506T18Z_MSC_RDPS_SpecificHumidity_AGL-40m_RLatLon0.09_PT075H.grib2 2026-05-07 03:00 509K
20260506T18Z_MSC_RDPS_SpecificHumidity_AGL-80m_RLatLon0.09_PT075H.grib2 2026-05-07 03:00 505K
20260506T18Z_MSC_RDPS_SpecificHumidity_IsbL-0001_RLatLon0.09_PT075H.grib2 2026-05-07 03:00 369K
20260506T18Z_MSC_RDPS_SpecificHumidity_IsbL-0005_RLatLon0.09_PT075H.grib2 2026-05-07 03:00 366K
20260506T18Z_MSC_RDPS_SpecificHumidity_IsbL-0010_RLatLon0.09_PT075H.grib2 2026-05-07 03:00 395K
20260506T18Z_MSC_RDPS_SpecificHumidity_IsbL-0020_RLatLon0.09_PT075H.grib2 2026-05-07 03:00 485K
20260506T18Z_MSC_RDPS_SpecificHumidity_IsbL-0030_RLatLon0.09_PT075H.grib2 2026-05-07 03:00 366K
20260506T18Z_MSC_RDPS_SpecificHumidity_IsbL-0050_RLatLon0.09_PT075H.grib2 2026-05-07 03:00 470K
20260506T18Z_MSC_RDPS_SpecificHumidity_IsbL-0100_RLatLon0.09_PT075H.grib2 2026-05-07 03:00 406K
20260506T18Z_MSC_RDPS_SpecificHumidity_IsbL-0150_RLatLon0.09_PT075H.grib2 2026-05-07 03:00 456K
20260506T18Z_MSC_RDPS_SpecificHumidity_IsbL-0175_RLatLon0.09_PT075H.grib2 2026-05-07 03:00 437K
20260506T18Z_MSC_RDPS_SpecificHumidity_IsbL-0200_RLatLon0.09_PT075H.grib2 2026-05-07 03:00 471K
20260506T18Z_MSC_RDPS_SpecificHumidity_IsbL-0225_RLatLon0.09_PT075H.grib2 2026-05-07 03:00 477K
20260506T18Z_MSC_RDPS_SpecificHumidity_IsbL-0250_RLatLon0.09_PT075H.grib2 2026-05-07 03:00 523K
20260506T18Z_MSC_RDPS_SpecificHumidity_IsbL-0275_RLatLon0.09_PT075H.grib2 2026-05-07 03:00 482K
20260506T18Z_MSC_RDPS_SpecificHumidity_IsbL-0300_RLatLon0.09_PT075H.grib2 2026-05-07 03:00 453K
20260506T18Z_MSC_RDPS_SpecificHumidity_IsbL-0350_RLatLon0.09_PT075H.grib2 2026-05-07 03:00 570K
20260506T18Z_MSC_RDPS_SpecificHumidity_IsbL-0400_RLatLon0.09_PT075H.grib2 2026-05-07 03:00 525K
20260506T18Z_MSC_RDPS_SpecificHumidity_IsbL-0450_RLatLon0.09_PT075H.grib2 2026-05-07 03:00 575K
20260506T18Z_MSC_RDPS_SpecificHumidity_IsbL-0500_RLatLon0.09_PT075H.grib2 2026-05-07 03:00 513K
20260506T18Z_MSC_RDPS_SpecificHumidity_IsbL-0550_RLatLon0.09_PT075H.grib2 2026-05-07 03:00 588K
20260506T18Z_MSC_RDPS_SpecificHumidity_IsbL-0600_RLatLon0.09_PT075H.grib2 2026-05-07 03:00 644K
20260506T18Z_MSC_RDPS_SpecificHumidity_IsbL-0650_RLatLon0.09_PT075H.grib2 2026-05-07 03:00 567K
20260506T18Z_MSC_RDPS_SpecificHumidity_IsbL-0700_RLatLon0.09_PT075H.grib2 2026-05-07 03:00 620K
20260506T18Z_MSC_RDPS_SpecificHumidity_IsbL-0750_RLatLon0.09_PT075H.grib2 2026-05-07 03:00 685K
20260506T18Z_MSC_RDPS_SpecificHumidity_IsbL-0800_RLatLon0.09_PT075H.grib2 2026-05-07 03:00 771K
20260506T18Z_MSC_RDPS_SpecificHumidity_IsbL-0850_RLatLon0.09_PT075H.grib2 2026-05-07 03:00 841K
20260506T18Z_MSC_RDPS_SpecificHumidity_IsbL-0875_RLatLon0.09_PT075H.grib2 2026-05-07 03:00 719K
20260506T18Z_MSC_RDPS_SpecificHumidity_IsbL-0900_RLatLon0.09_PT075H.grib2 2026-05-07 03:00 726K
20260506T18Z_MSC_RDPS_SpecificHumidity_IsbL-0925_RLatLon0.09_PT075H.grib2 2026-05-07 03:00 728K
20260506T18Z_MSC_RDPS_SpecificHumidity_IsbL-0950_RLatLon0.09_PT075H.grib2 2026-05-07 03:00 725K
20260506T18Z_MSC_RDPS_SpecificHumidity_IsbL-0970_RLatLon0.09_PT075H.grib2 2026-05-07 03:00 719K
20260506T18Z_MSC_RDPS_SpecificHumidity_IsbL-0985_RLatLon0.09_PT075H.grib2 2026-05-07 03:00 709K
20260506T18Z_MSC_RDPS_SpecificHumidity_IsbL-1000_RLatLon0.09_PT075H.grib2 2026-05-07 03:00 701K
20260506T18Z_MSC_RDPS_SpecificHumidity_IsbL-1015_RLatLon0.09_PT075H.grib2 2026-05-07 03:00 689K
20260506T18Z_MSC_RDPS_SpecificHumidity_Sfc_RLatLon0.09_PT075H.grib2 2026-05-07 03:00 356K
20260506T18Z_MSC_RDPS_StormRelativeHelicity_EtaL-10000_RLatLon0.09_PT075H.grib2 2026-05-07 03:00 1.1M
20260506T18Z_MSC_RDPS_StormSeverityIndex_EtaL-10000_RLatLon0.09_PT075H.grib2 2026-05-07 03:00 1.2M
20260506T18Z_MSC_RDPS_Thickness_IsbL-0850to0700_RLatLon0.09_PT075H.grib2 2026-05-07 03:00 252K
20260506T18Z_MSC_RDPS_Thickness_IsbL-1000to0500_RLatLon0.09_PT075H.grib2 2026-05-07 03:00 200K
20260506T18Z_MSC_RDPS_Thickness_IsbL-1000to0850_RLatLon0.09_PT075H.grib2 2026-05-07 03:00 266K
20260506T18Z_MSC_RDPS_TotalCloudCover_Sfc_RLatLon0.09_PT075H.grib2 2026-05-07 03:00 650K
20260506T18Z_MSC_RDPS_TotalTotalsIndex_Sfc_RLatLon0.09_PT075H.grib2 2026-05-07 03:00 2.6M
20260506T18Z_MSC_RDPS_UVIndex-ClearSky_Sfc_RLatLon0.09_PT075H.grib2 2026-05-07 03:00 205K
20260506T18Z_MSC_RDPS_UVIndex_Sfc_RLatLon0.09_PT075H.grib2 2026-05-07 03:00 487K
20260506T18Z_MSC_RDPS_UpwardLongwaveRadiationFlux_NTAtm_RLatLon0.09_PT075H.grib2 2026-05-07 03:00 384K
20260506T18Z_MSC_RDPS_UpwardShortwaveRadiationFlux_NTAtm_RLatLon0.09_PT075H.grib2 2026-05-07 03:00 521K
20260506T18Z_MSC_RDPS_VerticalVelocity_IsbL-0250_RLatLon0.09_PT075H.grib2 2026-05-07 03:00 577K
20260506T18Z_MSC_RDPS_VerticalVelocity_IsbL-0500_RLatLon0.09_PT075H.grib2 2026-05-07 03:00 535K
20260506T18Z_MSC_RDPS_VerticalVelocity_IsbL-0700_RLatLon0.09_PT075H.grib2 2026-05-07 03:00 605K
20260506T18Z_MSC_RDPS_VerticalVelocity_IsbL-0850_RLatLon0.09_PT075H.grib2 2026-05-07 03:00 708K
20260506T18Z_MSC_RDPS_VerticalWindShear_EtaL-6500_RLatLon0.09_PT075H.grib2 2026-05-07 03:00 1.2M
20260506T18Z_MSC_RDPS_WindChill_Sfc_RLatLon0.09_PT075H.grib2 2026-05-07 03:00 1.2M
20260506T18Z_MSC_RDPS_WindDir_AGL-10m_RLatLon0.09_PT075H.grib2 2026-05-07 03:00 953K
20260506T18Z_MSC_RDPS_WindDir_AGL-120m_RLatLon0.09_PT075H.grib2 2026-05-07 03:00 603K
20260506T18Z_MSC_RDPS_WindDir_AGL-40m_RLatLon0.09_PT075H.grib2 2026-05-07 03:00 623K
20260506T18Z_MSC_RDPS_WindDir_AGL-80m_RLatLon0.09_PT075H.grib2 2026-05-07 03:00 611K
20260506T18Z_MSC_RDPS_WindDir_IsbL-0001_RLatLon0.09_PT075H.grib2 2026-05-07 03:00 278K
20260506T18Z_MSC_RDPS_WindDir_IsbL-0005_RLatLon0.09_PT075H.grib2 2026-05-07 03:00 360K
20260506T18Z_MSC_RDPS_WindDir_IsbL-0010_RLatLon0.09_PT075H.grib2 2026-05-07 03:00 388K
20260506T18Z_MSC_RDPS_WindDir_IsbL-0020_RLatLon0.09_PT075H.grib2 2026-05-07 03:00 422K
20260506T18Z_MSC_RDPS_WindDir_IsbL-0030_RLatLon0.09_PT075H.grib2 2026-05-07 03:00 422K
20260506T18Z_MSC_RDPS_WindDir_IsbL-0050_RLatLon0.09_PT075H.grib2 2026-05-07 03:00 428K
20260506T18Z_MSC_RDPS_WindDir_IsbL-0100_RLatLon0.09_PT075H.grib2 2026-05-07 03:00 417K
20260506T18Z_MSC_RDPS_WindDir_IsbL-0150_RLatLon0.09_PT075H.grib2 2026-05-07 03:00 416K
20260506T18Z_MSC_RDPS_WindDir_IsbL-0175_RLatLon0.09_PT075H.grib2 2026-05-07 03:00 442K
20260506T18Z_MSC_RDPS_WindDir_IsbL-0200_RLatLon0.09_PT075H.grib2 2026-05-07 03:00 455K
20260506T18Z_MSC_RDPS_WindDir_IsbL-0225_RLatLon0.09_PT075H.grib2 2026-05-07 03:00 460K
20260506T18Z_MSC_RDPS_WindDir_IsbL-0250_RLatLon0.09_PT075H.grib2 2026-05-07 03:00 461K
20260506T18Z_MSC_RDPS_WindDir_IsbL-0275_RLatLon0.09_PT075H.grib2 2026-05-07 03:00 483K
20260506T18Z_MSC_RDPS_WindDir_IsbL-0300_RLatLon0.09_PT075H.grib2 2026-05-07 03:00 478K
20260506T18Z_MSC_RDPS_WindDir_IsbL-0350_RLatLon0.09_PT075H.grib2 2026-05-07 03:00 495K
20260506T18Z_MSC_RDPS_WindDir_IsbL-0400_RLatLon0.09_PT075H.grib2 2026-05-07 03:00 518K
20260506T18Z_MSC_RDPS_WindDir_IsbL-0450_RLatLon0.09_PT075H.grib2 2026-05-07 03:00 538K
20260506T18Z_MSC_RDPS_WindDir_IsbL-0500_RLatLon0.09_PT075H.grib2 2026-05-07 03:00 563K
20260506T18Z_MSC_RDPS_WindDir_IsbL-0550_RLatLon0.09_PT075H.grib2 2026-05-07 03:00 568K
20260506T18Z_MSC_RDPS_WindDir_IsbL-0600_RLatLon0.09_PT075H.grib2 2026-05-07 03:00 593K
20260506T18Z_MSC_RDPS_WindDir_IsbL-0650_RLatLon0.09_PT075H.grib2 2026-05-07 03:00 628K
20260506T18Z_MSC_RDPS_WindDir_IsbL-0700_RLatLon0.09_PT075H.grib2 2026-05-07 03:00 673K
20260506T18Z_MSC_RDPS_WindDir_IsbL-0750_RLatLon0.09_PT075H.grib2 2026-05-07 03:00 727K
20260506T18Z_MSC_RDPS_WindDir_IsbL-0800_RLatLon0.09_PT075H.grib2 2026-05-07 03:00 793K
20260506T18Z_MSC_RDPS_WindDir_IsbL-0850_RLatLon0.09_PT075H.grib2 2026-05-07 03:00 858K
20260506T18Z_MSC_RDPS_WindDir_IsbL-0875_RLatLon0.09_PT075H.grib2 2026-05-07 03:00 881K
20260506T18Z_MSC_RDPS_WindDir_IsbL-0900_RLatLon0.09_PT075H.grib2 2026-05-07 03:00 899K
20260506T18Z_MSC_RDPS_WindDir_IsbL-0925_RLatLon0.09_PT075H.grib2 2026-05-07 03:00 907K
20260506T18Z_MSC_RDPS_WindDir_IsbL-0950_RLatLon0.09_PT075H.grib2 2026-05-07 03:00 907K
20260506T18Z_MSC_RDPS_WindDir_IsbL-0970_RLatLon0.09_PT075H.grib2 2026-05-07 03:00 908K
20260506T18Z_MSC_RDPS_WindDir_IsbL-0985_RLatLon0.09_PT075H.grib2 2026-05-07 03:00 917K
20260506T18Z_MSC_RDPS_WindDir_IsbL-1000_RLatLon0.09_PT075H.grib2 2026-05-07 03:00 932K
20260506T18Z_MSC_RDPS_WindDir_IsbL-1015_RLatLon0.09_PT075H.grib2 2026-05-07 03:00 947K
20260506T18Z_MSC_RDPS_WindGust-Max_AGL-10m_RLatLon0.09_PT075H.grib2 2026-05-07 03:00 1.0M
20260506T18Z_MSC_RDPS_WindGust-Min_AGL-10m_RLatLon0.09_PT075H.grib2 2026-05-07 03:00 1.0M
20260506T18Z_MSC_RDPS_WindGust_AGL-10m_RLatLon0.09_PT075H.grib2 2026-05-07 03:00 1.0M
20260506T18Z_MSC_RDPS_WindSpeed_AGL-10m_RLatLon0.09_PT075H.grib2 2026-05-07 03:00 841K
20260506T18Z_MSC_RDPS_WindSpeed_AGL-120m_RLatLon0.09_PT075H.grib2 2026-05-07 03:00 536K
20260506T18Z_MSC_RDPS_WindSpeed_AGL-40m_RLatLon0.09_PT075H.grib2 2026-05-07 03:00 671K
20260506T18Z_MSC_RDPS_WindSpeed_AGL-80m_RLatLon0.09_PT075H.grib2 2026-05-07 03:00 537K
20260506T18Z_MSC_RDPS_WindSpeed_IsbL-0001_RLatLon0.09_PT075H.grib2 2026-05-07 03:00 252K
20260506T18Z_MSC_RDPS_WindSpeed_IsbL-0005_RLatLon0.09_PT075H.grib2 2026-05-07 03:00 381K
20260506T18Z_MSC_RDPS_WindSpeed_IsbL-0010_RLatLon0.09_PT075H.grib2 2026-05-07 03:00 365K
20260506T18Z_MSC_RDPS_WindSpeed_IsbL-0020_RLatLon0.09_PT075H.grib2 2026-05-07 03:00 324K
20260506T18Z_MSC_RDPS_WindSpeed_IsbL-0030_RLatLon0.09_PT075H.grib2 2026-05-07 03:00 417K
20260506T18Z_MSC_RDPS_WindSpeed_IsbL-0050_RLatLon0.09_PT075H.grib2 2026-05-07 03:00 342K
20260506T18Z_MSC_RDPS_WindSpeed_IsbL-0100_RLatLon0.09_PT075H.grib2 2026-05-07 03:00 474K
20260506T18Z_MSC_RDPS_WindSpeed_IsbL-0150_RLatLon0.09_PT075H.grib2 2026-05-07 03:00 377K
20260506T18Z_MSC_RDPS_WindSpeed_IsbL-0175_RLatLon0.09_PT075H.grib2 2026-05-07 03:00 404K
20260506T18Z_MSC_RDPS_WindSpeed_IsbL-0200_RLatLon0.09_PT075H.grib2 2026-05-07 03:00 439K
20260506T18Z_MSC_RDPS_WindSpeed_IsbL-0225_RLatLon0.09_PT075H.grib2 2026-05-07 03:00 445K
20260506T18Z_MSC_RDPS_WindSpeed_IsbL-0250_RLatLon0.09_PT075H.grib2 2026-05-07 03:00 450K
20260506T18Z_MSC_RDPS_WindSpeed_IsbL-0275_RLatLon0.09_PT075H.grib2 2026-05-07 03:00 467K
20260506T18Z_MSC_RDPS_WindSpeed_IsbL-0300_RLatLon0.09_PT075H.grib2 2026-05-07 03:00 463K
20260506T18Z_MSC_RDPS_WindSpeed_IsbL-0350_RLatLon0.09_PT075H.grib2 2026-05-07 03:00 472K
20260506T18Z_MSC_RDPS_WindSpeed_IsbL-0400_RLatLon0.09_PT075H.grib2 2026-05-07 03:00 477K
20260506T18Z_MSC_RDPS_WindSpeed_IsbL-0450_RLatLon0.09_PT075H.grib2 2026-05-07 03:00 478K
20260506T18Z_MSC_RDPS_WindSpeed_IsbL-0500_RLatLon0.09_PT075H.grib2 2026-05-07 03:00 464K
20260506T18Z_MSC_RDPS_WindSpeed_IsbL-0550_RLatLon0.09_PT075H.grib2 2026-05-07 03:00 466K
20260506T18Z_MSC_RDPS_WindSpeed_IsbL-0600_RLatLon0.09_PT075H.grib2 2026-05-07 03:00 477K
20260506T18Z_MSC_RDPS_WindSpeed_IsbL-0650_RLatLon0.09_PT075H.grib2 2026-05-07 03:00 616K
20260506T18Z_MSC_RDPS_WindSpeed_IsbL-0700_RLatLon0.09_PT075H.grib2 2026-05-07 03:00 687K
20260506T18Z_MSC_RDPS_WindSpeed_IsbL-0750_RLatLon0.09_PT075H.grib2 2026-05-07 03:00 721K
20260506T18Z_MSC_RDPS_WindSpeed_IsbL-0800_RLatLon0.09_PT075H.grib2 2026-05-07 03:00 768K
20260506T18Z_MSC_RDPS_WindSpeed_IsbL-0850_RLatLon0.09_PT075H.grib2 2026-05-07 03:00 822K
20260506T18Z_MSC_RDPS_WindSpeed_IsbL-0875_RLatLon0.09_PT075H.grib2 2026-05-07 03:00 840K
20260506T18Z_MSC_RDPS_WindSpeed_IsbL-0900_RLatLon0.09_PT075H.grib2 2026-05-07 03:00 851K
20260506T18Z_MSC_RDPS_WindSpeed_IsbL-0925_RLatLon0.09_PT075H.grib2 2026-05-07 03:00 861K
20260506T18Z_MSC_RDPS_WindSpeed_IsbL-0950_RLatLon0.09_PT075H.grib2 2026-05-07 03:00 863K
20260506T18Z_MSC_RDPS_WindSpeed_IsbL-0970_RLatLon0.09_PT075H.grib2 2026-05-07 03:00 860K
20260506T18Z_MSC_RDPS_WindSpeed_IsbL-0985_RLatLon0.09_PT075H.grib2 2026-05-07 03:00 857K
20260506T18Z_MSC_RDPS_WindSpeed_IsbL-1000_RLatLon0.09_PT075H.grib2 2026-05-07 03:00 852K
20260506T18Z_MSC_RDPS_WindSpeed_IsbL-1015_RLatLon0.09_PT075H.grib2 2026-05-07 03:00 843K
20260506T18Z_MSC_RDPS_WindU_AGL-10m_RLatLon0.09_PT075H.grib2 2026-05-07 03:00 433K
20260506T18Z_MSC_RDPS_WindU_AGL-120m_RLatLon0.09_PT075H.grib2 2026-05-07 03:00 533K
20260506T18Z_MSC_RDPS_WindU_AGL-40m_RLatLon0.09_PT075H.grib2 2026-05-07 03:00 536K
20260506T18Z_MSC_RDPS_WindU_AGL-80m_RLatLon0.09_PT075H.grib2 2026-05-07 03:00 534K
20260506T18Z_MSC_RDPS_WindU_IsbL-0001_RLatLon0.09_PT075H.grib2 2026-05-07 03:00 294K
20260506T18Z_MSC_RDPS_WindU_IsbL-0005_RLatLon0.09_PT075H.grib2 2026-05-07 03:00 287K
20260506T18Z_MSC_RDPS_WindU_IsbL-0010_RLatLon0.09_PT075H.grib2 2026-05-07 03:00 298K
20260506T18Z_MSC_RDPS_WindU_IsbL-0020_RLatLon0.09_PT075H.grib2 2026-05-07 03:00 314K
20260506T18Z_MSC_RDPS_WindU_IsbL-0030_RLatLon0.09_PT075H.grib2 2026-05-07 03:00 311K
20260506T18Z_MSC_RDPS_WindU_IsbL-0050_RLatLon0.09_PT075H.grib2 2026-05-07 03:00 373K
20260506T18Z_MSC_RDPS_WindU_IsbL-0100_RLatLon0.09_PT075H.grib2 2026-05-07 03:00 431K
20260506T18Z_MSC_RDPS_WindU_IsbL-0150_RLatLon0.09_PT075H.grib2 2026-05-07 03:00 369K
20260506T18Z_MSC_RDPS_WindU_IsbL-0175_RLatLon0.09_PT075H.grib2 2026-05-07 03:00 419K
20260506T18Z_MSC_RDPS_WindU_IsbL-0200_RLatLon0.09_PT075H.grib2 2026-05-07 03:00 432K
20260506T18Z_MSC_RDPS_WindU_IsbL-0225_RLatLon0.09_PT075H.grib2 2026-05-07 03:00 339K
20260506T18Z_MSC_RDPS_WindU_IsbL-0250_RLatLon0.09_PT075H.grib2 2026-05-07 03:00 339K
20260506T18Z_MSC_RDPS_WindU_IsbL-0275_RLatLon0.09_PT075H.grib2 2026-05-07 03:00 353K
20260506T18Z_MSC_RDPS_WindU_IsbL-0300_RLatLon0.09_PT075H.grib2 2026-05-07 03:00 349K
20260506T18Z_MSC_RDPS_WindU_IsbL-0350_RLatLon0.09_PT075H.grib2 2026-05-07 03:00 355K
20260506T18Z_MSC_RDPS_WindU_IsbL-0400_RLatLon0.09_PT075H.grib2 2026-05-07 03:00 462K
20260506T18Z_MSC_RDPS_WindU_IsbL-0450_RLatLon0.09_PT075H.grib2 2026-05-07 03:00 465K
20260506T18Z_MSC_RDPS_WindU_IsbL-0500_RLatLon0.09_PT075H.grib2 2026-05-07 03:00 469K
20260506T18Z_MSC_RDPS_WindU_IsbL-0550_RLatLon0.09_PT075H.grib2 2026-05-07 03:00 473K
20260506T18Z_MSC_RDPS_WindU_IsbL-0600_RLatLon0.09_PT075H.grib2 2026-05-07 03:00 484K
20260506T18Z_MSC_RDPS_WindU_IsbL-0650_RLatLon0.09_PT075H.grib2 2026-05-07 03:00 487K
20260506T18Z_MSC_RDPS_WindU_IsbL-0700_RLatLon0.09_PT075H.grib2 2026-05-07 03:00 512K
20260506T18Z_MSC_RDPS_WindU_IsbL-0750_RLatLon0.09_PT075H.grib2 2026-05-07 03:00 542K
20260506T18Z_MSC_RDPS_WindU_IsbL-0800_RLatLon0.09_PT075H.grib2 2026-05-07 03:00 582K
20260506T18Z_MSC_RDPS_WindU_IsbL-0850_RLatLon0.09_PT075H.grib2 2026-05-07 03:00 629K
20260506T18Z_MSC_RDPS_WindU_IsbL-0875_RLatLon0.09_PT075H.grib2 2026-05-07 03:00 644K
20260506T18Z_MSC_RDPS_WindU_IsbL-0900_RLatLon0.09_PT075H.grib2 2026-05-07 03:00 656K
20260506T18Z_MSC_RDPS_WindU_IsbL-0925_RLatLon0.09_PT075H.grib2 2026-05-07 03:00 661K
20260506T18Z_MSC_RDPS_WindU_IsbL-0950_RLatLon0.09_PT075H.grib2 2026-05-07 03:00 658K
20260506T18Z_MSC_RDPS_WindU_IsbL-0970_RLatLon0.09_PT075H.grib2 2026-05-07 03:00 792K
20260506T18Z_MSC_RDPS_WindU_IsbL-0985_RLatLon0.09_PT075H.grib2 2026-05-07 03:00 789K
20260506T18Z_MSC_RDPS_WindU_IsbL-1000_RLatLon0.09_PT075H.grib2 2026-05-07 03:00 832K
20260506T18Z_MSC_RDPS_WindU_IsbL-1015_RLatLon0.09_PT075H.grib2 2026-05-07 03:00 827K
20260506T18Z_MSC_RDPS_WindV_AGL-10m_RLatLon0.09_PT075H.grib2 2026-05-07 03:00 435K
20260506T18Z_MSC_RDPS_WindV_AGL-120m_RLatLon0.09_PT075H.grib2 2026-05-07 03:00 533K
20260506T18Z_MSC_RDPS_WindV_AGL-40m_RLatLon0.09_PT075H.grib2 2026-05-07 03:00 537K
20260506T18Z_MSC_RDPS_WindV_AGL-80m_RLatLon0.09_PT075H.grib2 2026-05-07 03:00 535K
20260506T18Z_MSC_RDPS_WindV_IsbL-0001_RLatLon0.09_PT075H.grib2 2026-05-07 03:00 246K
20260506T18Z_MSC_RDPS_WindV_IsbL-0005_RLatLon0.09_PT075H.grib2 2026-05-07 03:00 287K
20260506T18Z_MSC_RDPS_WindV_IsbL-0010_RLatLon0.09_PT075H.grib2 2026-05-07 03:00 299K
20260506T18Z_MSC_RDPS_WindV_IsbL-0020_RLatLon0.09_PT075H.grib2 2026-05-07 03:00 315K
20260506T18Z_MSC_RDPS_WindV_IsbL-0030_RLatLon0.09_PT075H.grib2 2026-05-07 03:00 314K
20260506T18Z_MSC_RDPS_WindV_IsbL-0050_RLatLon0.09_PT075H.grib2 2026-05-07 03:00 337K
20260506T18Z_MSC_RDPS_WindV_IsbL-0100_RLatLon0.09_PT075H.grib2 2026-05-07 03:00 426K
20260506T18Z_MSC_RDPS_WindV_IsbL-0150_RLatLon0.09_PT075H.grib2 2026-05-07 03:00 392K
20260506T18Z_MSC_RDPS_WindV_IsbL-0175_RLatLon0.09_PT075H.grib2 2026-05-07 03:00 415K
20260506T18Z_MSC_RDPS_WindV_IsbL-0200_RLatLon0.09_PT075H.grib2 2026-05-07 03:00 333K
20260506T18Z_MSC_RDPS_WindV_IsbL-0225_RLatLon0.09_PT075H.grib2 2026-05-07 03:00 363K
20260506T18Z_MSC_RDPS_WindV_IsbL-0250_RLatLon0.09_PT075H.grib2 2026-05-07 03:00 366K
20260506T18Z_MSC_RDPS_WindV_IsbL-0275_RLatLon0.09_PT075H.grib2 2026-05-07 03:00 378K
20260506T18Z_MSC_RDPS_WindV_IsbL-0300_RLatLon0.09_PT075H.grib2 2026-05-07 03:00 373K
20260506T18Z_MSC_RDPS_WindV_IsbL-0350_RLatLon0.09_PT075H.grib2 2026-05-07 03:00 356K
20260506T18Z_MSC_RDPS_WindV_IsbL-0400_RLatLon0.09_PT075H.grib2 2026-05-07 03:00 359K
20260506T18Z_MSC_RDPS_WindV_IsbL-0450_RLatLon0.09_PT075H.grib2 2026-05-07 03:00 462K
20260506T18Z_MSC_RDPS_WindV_IsbL-0500_RLatLon0.09_PT075H.grib2 2026-05-07 03:00 465K
20260506T18Z_MSC_RDPS_WindV_IsbL-0550_RLatLon0.09_PT075H.grib2 2026-05-07 03:00 468K
20260506T18Z_MSC_RDPS_WindV_IsbL-0600_RLatLon0.09_PT075H.grib2 2026-05-07 03:00 478K
20260506T18Z_MSC_RDPS_WindV_IsbL-0650_RLatLon0.09_PT075H.grib2 2026-05-07 03:00 497K
20260506T18Z_MSC_RDPS_WindV_IsbL-0700_RLatLon0.09_PT075H.grib2 2026-05-07 03:00 506K
20260506T18Z_MSC_RDPS_WindV_IsbL-0750_RLatLon0.09_PT075H.grib2 2026-05-07 03:00 536K
20260506T18Z_MSC_RDPS_WindV_IsbL-0800_RLatLon0.09_PT075H.grib2 2026-05-07 03:00 577K
20260506T18Z_MSC_RDPS_WindV_IsbL-0850_RLatLon0.09_PT075H.grib2 2026-05-07 03:00 624K
20260506T18Z_MSC_RDPS_WindV_IsbL-0875_RLatLon0.09_PT075H.grib2 2026-05-07 03:00 640K
20260506T18Z_MSC_RDPS_WindV_IsbL-0900_RLatLon0.09_PT075H.grib2 2026-05-07 03:00 653K
20260506T18Z_MSC_RDPS_WindV_IsbL-0925_RLatLon0.09_PT075H.grib2 2026-05-07 03:00 660K
20260506T18Z_MSC_RDPS_WindV_IsbL-0950_RLatLon0.09_PT075H.grib2 2026-05-07 03:00 660K
20260506T18Z_MSC_RDPS_WindV_IsbL-0970_RLatLon0.09_PT075H.grib2 2026-05-07 03:00 797K
20260506T18Z_MSC_RDPS_WindV_IsbL-0985_RLatLon0.09_PT075H.grib2 2026-05-07 03:00 793K
20260506T18Z_MSC_RDPS_WindV_IsbL-1000_RLatLon0.09_PT075H.grib2 2026-05-07 03:00 788K
20260506T18Z_MSC_RDPS_WindV_IsbL-1015_RLatLon0.09_PT075H.grib2 2026-05-07 03:00 829K
20260507T18Z_MSC_RDPS_AbsoluteVorticity_IsbL-0250_RLatLon0.09_PT075H.grib2 2026-05-07 21:05 615K
20260507T18Z_MSC_RDPS_AbsoluteVorticity_IsbL-0500_RLatLon0.09_PT075H.grib2 2026-05-07 21:05 571K
20260507T18Z_MSC_RDPS_AbsoluteVorticity_IsbL-0700_RLatLon0.09_PT075H.grib2 2026-05-07 21:05 628K
20260507T18Z_MSC_RDPS_AbsoluteVorticity_IsbL-0850_RLatLon0.09_PT075H.grib2 2026-05-07 21:05 781K
20260507T18Z_MSC_RDPS_AirTemp_AGL-120m_RLatLon0.09_PT075H.grib2 2026-05-07 21:05 380K
20260507T18Z_MSC_RDPS_AirTemp_AGL-2m_RLatLon0.09_PT075H.grib2 2026-05-07 21:05 620K
20260507T18Z_MSC_RDPS_AirTemp_AGL-40m_RLatLon0.09_PT075H.grib2 2026-05-07 21:05 388K
20260507T18Z_MSC_RDPS_AirTemp_AGL-80m_RLatLon0.09_PT075H.grib2 2026-05-07 21:05 383K
20260507T18Z_MSC_RDPS_AirTemp_IsbL-0001_RLatLon0.09_PT075H.grib2 2026-05-07 21:05 325K
20260507T18Z_MSC_RDPS_AirTemp_IsbL-0005_RLatLon0.09_PT075H.grib2 2026-05-07 21:05 383K
20260507T18Z_MSC_RDPS_AirTemp_IsbL-0010_RLatLon0.09_PT075H.grib2 2026-05-07 21:05 393K
20260507T18Z_MSC_RDPS_AirTemp_IsbL-0020_RLatLon0.09_PT075H.grib2 2026-05-07 21:05 321K
20260507T18Z_MSC_RDPS_AirTemp_IsbL-0030_RLatLon0.09_PT075H.grib2 2026-05-07 21:05 340K
20260507T18Z_MSC_RDPS_AirTemp_IsbL-0050_RLatLon0.09_PT075H.grib2 2026-05-07 21:05 310K
20260507T18Z_MSC_RDPS_AirTemp_IsbL-0100_RLatLon0.09_PT075H.grib2 2026-05-07 21:05 430K
20260507T18Z_MSC_RDPS_AirTemp_IsbL-0150_RLatLon0.09_PT075H.grib2 2026-05-07 21:05 409K
20260507T18Z_MSC_RDPS_AirTemp_IsbL-0175_RLatLon0.09_PT075H.grib2 2026-05-07 21:05 403K
20260507T18Z_MSC_RDPS_AirTemp_IsbL-0200_RLatLon0.09_PT075H.grib2 2026-05-07 21:05 409K
20260507T18Z_MSC_RDPS_AirTemp_IsbL-0225_RLatLon0.09_PT075H.grib2 2026-05-07 21:05 412K
20260507T18Z_MSC_RDPS_AirTemp_IsbL-0250_RLatLon0.09_PT075H.grib2 2026-05-07 21:05 427K
20260507T18Z_MSC_RDPS_AirTemp_IsbL-0275_RLatLon0.09_PT075H.grib2 2026-05-07 21:05 408K
20260507T18Z_MSC_RDPS_AirTemp_IsbL-0300_RLatLon0.09_PT075H.grib2 2026-05-07 21:05 413K
20260507T18Z_MSC_RDPS_AirTemp_IsbL-0350_RLatLon0.09_PT075H.grib2 2026-05-07 21:05 421K
20260507T18Z_MSC_RDPS_AirTemp_IsbL-0400_RLatLon0.09_PT075H.grib2 2026-05-07 21:05 425K
20260507T18Z_MSC_RDPS_AirTemp_IsbL-0450_RLatLon0.09_PT075H.grib2 2026-05-07 21:05 435K
20260507T18Z_MSC_RDPS_AirTemp_IsbL-0500_RLatLon0.09_PT075H.grib2 2026-05-07 21:05 449K
20260507T18Z_MSC_RDPS_AirTemp_IsbL-0550_RLatLon0.09_PT075H.grib2 2026-05-07 21:05 468K
20260507T18Z_MSC_RDPS_AirTemp_IsbL-0600_RLatLon0.09_PT075H.grib2 2026-05-07 21:05 487K
20260507T18Z_MSC_RDPS_AirTemp_IsbL-0650_RLatLon0.09_PT075H.grib2 2026-05-07 21:05 504K
20260507T18Z_MSC_RDPS_AirTemp_IsbL-0700_RLatLon0.09_PT075H.grib2 2026-05-07 21:05 530K
20260507T18Z_MSC_RDPS_AirTemp_IsbL-0750_RLatLon0.09_PT075H.grib2 2026-05-07 21:05 530K
20260507T18Z_MSC_RDPS_AirTemp_IsbL-0800_RLatLon0.09_PT075H.grib2 2026-05-07 21:05 581K
20260507T18Z_MSC_RDPS_AirTemp_IsbL-0850_RLatLon0.09_PT075H.grib2 2026-05-07 21:05 632K
20260507T18Z_MSC_RDPS_AirTemp_IsbL-0875_RLatLon0.09_PT075H.grib2 2026-05-07 21:05 524K
20260507T18Z_MSC_RDPS_AirTemp_IsbL-0900_RLatLon0.09_PT075H.grib2 2026-05-07 21:05 529K
20260507T18Z_MSC_RDPS_AirTemp_IsbL-0925_RLatLon0.09_PT075H.grib2 2026-05-07 21:05 532K
20260507T18Z_MSC_RDPS_AirTemp_IsbL-0950_RLatLon0.09_PT075H.grib2 2026-05-07 21:05 534K
20260507T18Z_MSC_RDPS_AirTemp_IsbL-0970_RLatLon0.09_PT075H.grib2 2026-05-07 21:05 532K
20260507T18Z_MSC_RDPS_AirTemp_IsbL-0985_RLatLon0.09_PT075H.grib2 2026-05-07 21:05 520K
20260507T18Z_MSC_RDPS_AirTemp_IsbL-1000_RLatLon0.09_PT075H.grib2 2026-05-07 21:05 505K
20260507T18Z_MSC_RDPS_AirTemp_IsbL-1015_RLatLon0.09_PT075H.grib2 2026-05-07 21:05 505K
20260507T18Z_MSC_RDPS_Albedo_Sfc_RLatLon0.09_PT075H.grib2 2026-05-07 21:05 161K
20260507T18Z_MSC_RDPS_CAPE_Sfc_RLatLon0.09_PT075H.grib2 2026-05-07 21:05 1.9M
20260507T18Z_MSC_RDPS_CIN_Sfc_RLatLon0.09_PT075H.grib2 2026-05-07 21:05 1.4M
20260507T18Z_MSC_RDPS_CloudWater_EAtm_RLatLon0.09_PT075H.grib2 2026-05-07 21:05 231K
20260507T18Z_MSC_RDPS_ConvectivePrecip-Accum_Sfc_RLatLon0.09_PT075H.grib2 2026-05-07 21:05 1.3M
20260507T18Z_MSC_RDPS_DewPointDepression_AGL-2m_RLatLon0.09_PT075H.grib2 2026-05-07 21:05 417K
20260507T18Z_MSC_RDPS_DewPointDepression_IsbL-0001_RLatLon0.09_PT075H.grib2 2026-05-07 21:05 193
20260507T18Z_MSC_RDPS_DewPointDepression_IsbL-0005_RLatLon0.09_PT075H.grib2 2026-05-07 21:05 193
20260507T18Z_MSC_RDPS_DewPointDepression_IsbL-0010_RLatLon0.09_PT075H.grib2 2026-05-07 21:05 193
20260507T18Z_MSC_RDPS_DewPointDepression_IsbL-0020_RLatLon0.09_PT075H.grib2 2026-05-07 21:05 193
20260507T18Z_MSC_RDPS_DewPointDepression_IsbL-0030_RLatLon0.09_PT075H.grib2 2026-05-07 21:05 705
20260507T18Z_MSC_RDPS_DewPointDepression_IsbL-0050_RLatLon0.09_PT075H.grib2 2026-05-07 21:05 107K
20260507T18Z_MSC_RDPS_DewPointDepression_IsbL-0100_RLatLon0.09_PT075H.grib2 2026-05-07 21:05 112K
20260507T18Z_MSC_RDPS_DewPointDepression_IsbL-0150_RLatLon0.09_PT075H.grib2 2026-05-07 21:05 148K
20260507T18Z_MSC_RDPS_DewPointDepression_IsbL-0175_RLatLon0.09_PT075H.grib2 2026-05-07 21:05 171K
20260507T18Z_MSC_RDPS_DewPointDepression_IsbL-0200_RLatLon0.09_PT075H.grib2 2026-05-07 21:05 218K
20260507T18Z_MSC_RDPS_DewPointDepression_IsbL-0225_RLatLon0.09_PT075H.grib2 2026-05-07 21:05 264K
20260507T18Z_MSC_RDPS_DewPointDepression_IsbL-0250_RLatLon0.09_PT075H.grib2 2026-05-07 21:05 306K
20260507T18Z_MSC_RDPS_DewPointDepression_IsbL-0275_RLatLon0.09_PT075H.grib2 2026-05-07 21:05 315K
20260507T18Z_MSC_RDPS_DewPointDepression_IsbL-0300_RLatLon0.09_PT075H.grib2 2026-05-07 21:05 330K
20260507T18Z_MSC_RDPS_DewPointDepression_IsbL-0350_RLatLon0.09_PT075H.grib2 2026-05-07 21:05 333K
20260507T18Z_MSC_RDPS_DewPointDepression_IsbL-0400_RLatLon0.09_PT075H.grib2 2026-05-07 21:05 343K
20260507T18Z_MSC_RDPS_DewPointDepression_IsbL-0450_RLatLon0.09_PT075H.grib2 2026-05-07 21:05 352K
20260507T18Z_MSC_RDPS_DewPointDepression_IsbL-0500_RLatLon0.09_PT075H.grib2 2026-05-07 21:05 357K
20260507T18Z_MSC_RDPS_DewPointDepression_IsbL-0550_RLatLon0.09_PT075H.grib2 2026-05-07 21:05 369K
20260507T18Z_MSC_RDPS_DewPointDepression_IsbL-0600_RLatLon0.09_PT075H.grib2 2026-05-07 21:05 383K
20260507T18Z_MSC_RDPS_DewPointDepression_IsbL-0650_RLatLon0.09_PT075H.grib2 2026-05-07 21:05 394K
20260507T18Z_MSC_RDPS_DewPointDepression_IsbL-0700_RLatLon0.09_PT075H.grib2 2026-05-07 21:05 409K
20260507T18Z_MSC_RDPS_DewPointDepression_IsbL-0750_RLatLon0.09_PT075H.grib2 2026-05-07 21:05 426K
20260507T18Z_MSC_RDPS_DewPointDepression_IsbL-0800_RLatLon0.09_PT075H.grib2 2026-05-07 21:05 457K
20260507T18Z_MSC_RDPS_DewPointDepression_IsbL-0850_RLatLon0.09_PT075H.grib2 2026-05-07 21:05 473K
20260507T18Z_MSC_RDPS_DewPointDepression_IsbL-0875_RLatLon0.09_PT075H.grib2 2026-05-07 21:05 466K
20260507T18Z_MSC_RDPS_DewPointDepression_IsbL-0900_RLatLon0.09_PT075H.grib2 2026-05-07 21:05 455K
20260507T18Z_MSC_RDPS_DewPointDepression_IsbL-0925_RLatLon0.09_PT075H.grib2 2026-05-07 21:05 448K
20260507T18Z_MSC_RDPS_DewPointDepression_IsbL-0950_RLatLon0.09_PT075H.grib2 2026-05-07 21:05 441K
20260507T18Z_MSC_RDPS_DewPointDepression_IsbL-0970_RLatLon0.09_PT075H.grib2 2026-05-07 21:05 436K
20260507T18Z_MSC_RDPS_DewPointDepression_IsbL-0985_RLatLon0.09_PT075H.grib2 2026-05-07 21:05 431K
20260507T18Z_MSC_RDPS_DewPointDepression_IsbL-1000_RLatLon0.09_PT075H.grib2 2026-05-07 21:05 425K
20260507T18Z_MSC_RDPS_DewPointDepression_IsbL-1015_RLatLon0.09_PT075H.grib2 2026-05-07 21:05 414K
20260507T18Z_MSC_RDPS_DewPoint_AGL-2m_RLatLon0.09_PT075H.grib2 2026-05-07 21:05 396K
20260507T18Z_MSC_RDPS_DownwardLongwaveRadiationFlux-Accum_Sfc_RLatLon0.09_PT075H.grib2 2026-05-07 21:05 432K
20260507T18Z_MSC_RDPS_DownwardShortwaveRadiationFlux-Accum_NTAtm_RLatLon0.09_PT075H.grib2 2026-05-07 21:05 163K
20260507T18Z_MSC_RDPS_DownwardShortwaveRadiationFlux-Accum_Sfc_RLatLon0.09_PT075H.grib2 2026-05-07 21:05 641K
20260507T18Z_MSC_RDPS_FreezingRain-Accum1h_Sfc_RLatLon0.09_PT075H.grib2 2026-05-07 21:05 35K
20260507T18Z_MSC_RDPS_FreezingRain-Accum3h_Sfc_RLatLon0.09_PT075H.grib2 2026-05-07 21:05 45K
20260507T18Z_MSC_RDPS_FreezingRain-Accum_Sfc_RLatLon0.09_PT075H.grib2 2026-05-07 21:05 182K
20260507T18Z_MSC_RDPS_GeopotentialHeight_IsbL-0001_RLatLon0.09_PT075H.grib2 2026-05-07 21:05 253K
20260507T18Z_MSC_RDPS_GeopotentialHeight_IsbL-0005_RLatLon0.09_PT075H.grib2 2026-05-07 21:05 345K
20260507T18Z_MSC_RDPS_GeopotentialHeight_IsbL-0010_RLatLon0.09_PT075H.grib2 2026-05-07 21:05 313K
20260507T18Z_MSC_RDPS_GeopotentialHeight_IsbL-0020_RLatLon0.09_PT075H.grib2 2026-05-07 21:05 313K
20260507T18Z_MSC_RDPS_GeopotentialHeight_IsbL-0030_RLatLon0.09_PT075H.grib2 2026-05-07 21:05 316K
20260507T18Z_MSC_RDPS_GeopotentialHeight_IsbL-0050_RLatLon0.09_PT075H.grib2 2026-05-07 21:05 314K
20260507T18Z_MSC_RDPS_GeopotentialHeight_IsbL-0100_RLatLon0.09_PT075H.grib2 2026-05-07 21:05 288K
20260507T18Z_MSC_RDPS_GeopotentialHeight_IsbL-0150_RLatLon0.09_PT075H.grib2 2026-05-07 21:05 230K
20260507T18Z_MSC_RDPS_GeopotentialHeight_IsbL-0175_RLatLon0.09_PT075H.grib2 2026-05-07 21:05 231K
20260507T18Z_MSC_RDPS_GeopotentialHeight_IsbL-0200_RLatLon0.09_PT075H.grib2 2026-05-07 21:05 233K
20260507T18Z_MSC_RDPS_GeopotentialHeight_IsbL-0225_RLatLon0.09_PT075H.grib2 2026-05-07 21:05 235K
20260507T18Z_MSC_RDPS_GeopotentialHeight_IsbL-0250_RLatLon0.09_PT075H.grib2 2026-05-07 21:05 236K
20260507T18Z_MSC_RDPS_GeopotentialHeight_IsbL-0275_RLatLon0.09_PT075H.grib2 2026-05-07 21:05 236K
20260507T18Z_MSC_RDPS_GeopotentialHeight_IsbL-0300_RLatLon0.09_PT075H.grib2 2026-05-07 21:05 236K
20260507T18Z_MSC_RDPS_GeopotentialHeight_IsbL-0350_RLatLon0.09_PT075H.grib2 2026-05-07 21:05 232K
20260507T18Z_MSC_RDPS_GeopotentialHeight_IsbL-0400_RLatLon0.09_PT075H.grib2 2026-05-07 21:05 301K
20260507T18Z_MSC_RDPS_GeopotentialHeight_IsbL-0450_RLatLon0.09_PT075H.grib2 2026-05-07 21:05 296K
20260507T18Z_MSC_RDPS_GeopotentialHeight_IsbL-0500_RLatLon0.09_PT075H.grib2 2026-05-07 21:05 290K
20260507T18Z_MSC_RDPS_GeopotentialHeight_IsbL-0550_RLatLon0.09_PT075H.grib2 2026-05-07 21:05 287K
20260507T18Z_MSC_RDPS_GeopotentialHeight_IsbL-0600_RLatLon0.09_PT075H.grib2 2026-05-07 21:05 285K
20260507T18Z_MSC_RDPS_GeopotentialHeight_IsbL-0650_RLatLon0.09_PT075H.grib2 2026-05-07 21:05 256K
20260507T18Z_MSC_RDPS_GeopotentialHeight_IsbL-0700_RLatLon0.09_PT075H.grib2 2026-05-07 21:05 255K
20260507T18Z_MSC_RDPS_GeopotentialHeight_IsbL-0750_RLatLon0.09_PT075H.grib2 2026-05-07 21:05 258K
20260507T18Z_MSC_RDPS_GeopotentialHeight_IsbL-0800_RLatLon0.09_PT075H.grib2 2026-05-07 21:05 348K
20260507T18Z_MSC_RDPS_GeopotentialHeight_IsbL-0850_RLatLon0.09_PT075H.grib2 2026-05-07 21:05 357K
20260507T18Z_MSC_RDPS_GeopotentialHeight_IsbL-0875_RLatLon0.09_PT075H.grib2 2026-05-07 21:05 361K
20260507T18Z_MSC_RDPS_GeopotentialHeight_IsbL-0900_RLatLon0.09_PT075H.grib2 2026-05-07 21:05 365K
20260507T18Z_MSC_RDPS_GeopotentialHeight_IsbL-0925_RLatLon0.09_PT075H.grib2 2026-05-07 21:05 367K
20260507T18Z_MSC_RDPS_GeopotentialHeight_IsbL-0950_RLatLon0.09_PT075H.grib2 2026-05-07 21:05 372K
20260507T18Z_MSC_RDPS_GeopotentialHeight_IsbL-0970_RLatLon0.09_PT075H.grib2 2026-05-07 21:05 378K
20260507T18Z_MSC_RDPS_GeopotentialHeight_IsbL-0985_RLatLon0.09_PT075H.grib2 2026-05-07 21:05 388K
20260507T18Z_MSC_RDPS_GeopotentialHeight_IsbL-1000_RLatLon0.09_PT075H.grib2 2026-05-07 21:05 401K
20260507T18Z_MSC_RDPS_GeopotentialHeight_IsbL-1015_RLatLon0.09_PT075H.grib2 2026-05-07 21:05 418K
20260507T18Z_MSC_RDPS_HighLowPressure_MSL_RLatLon0.09_PT075H.json 2026-05-07 20:57 18K
20260507T18Z_MSC_RDPS_Humidex_Sfc_RLatLon0.09_PT075H.grib2 2026-05-07 21:05 2.4M
20260507T18Z_MSC_RDPS_IcePellets-Accum1h_Sfc_RLatLon0.09_PT075H.grib2 2026-05-07 21:05 22K
20260507T18Z_MSC_RDPS_IcePellets-Accum3h_Sfc_RLatLon0.09_PT075H.grib2 2026-05-07 21:05 24K
20260507T18Z_MSC_RDPS_IcePellets-Accum_Sfc_RLatLon0.09_PT075H.grib2 2026-05-07 21:05 40K
20260507T18Z_MSC_RDPS_KIndex_Sfc_RLatLon0.09_PT075H.grib2 2026-05-07 21:05 2.5M
20260507T18Z_MSC_RDPS_LatentHeatNetFlux_Sfc_RLatLon0.09_PT075H.grib2 2026-05-07 21:05 318K
20260507T18Z_MSC_RDPS_LiftedIndex-MU-VT_IsbL-0500_RLatLon0.09_PT075H.grib2 2026-05-07 21:05 2.4M
20260507T18Z_MSC_RDPS_NetLongwaveRadiationFlux-Accum_Sfc_RLatLon0.09_PT075H.grib2 2026-05-07 21:05 483K
20260507T18Z_MSC_RDPS_NetShortwaveRadiationFlux-Accum_Sfc_RLatLon0.09_PT075H.grib2 2026-05-07 21:05 644K
20260507T18Z_MSC_RDPS_PlanetaryBoundaryLayerHeight_Sfc_RLatLon0.09_PT075H.grib2 2026-05-07 21:05 1.0M
20260507T18Z_MSC_RDPS_Precip-Accum1h_Sfc_RLatLon0.09_PT075H.grib2 2026-05-07 21:05 1.2M
20260507T18Z_MSC_RDPS_Precip-Accum3h_Sfc_RLatLon0.09_PT075H.grib2 2026-05-07 21:05 1.4M
20260507T18Z_MSC_RDPS_Precip-Accum_Sfc_RLatLon0.09_PT075H.grib2 2026-05-07 21:05 2.1M
20260507T18Z_MSC_RDPS_PrecipRate_Sfc_RLatLon0.09_PT075H.grib2 2026-05-07 21:05 198K
20260507T18Z_MSC_RDPS_PrecipType-Instant_Sfc_RLatLon0.09_PT075H.grib2 2026-05-07 21:05 631K
20260507T18Z_MSC_RDPS_Pressure-Trend3h_Sfc_RLatLon0.09_PT075H.grib2 2026-05-07 21:05 1.2M
20260507T18Z_MSC_RDPS_Pressure_MSL_RLatLon0.09_PT075H.grib2 2026-05-07 21:05 331K
20260507T18Z_MSC_RDPS_Pressure_PVU-1.5_RLatLon0.09_PT075H.grib2 2026-05-07 21:05 2.5M
20260507T18Z_MSC_RDPS_Pressure_PVU-1_RLatLon0.09_PT075H.grib2 2026-05-07 21:05 2.4M
20260507T18Z_MSC_RDPS_Pressure_PVU-2_RLatLon0.09_PT075H.grib2 2026-05-07 21:05 2.4M
20260507T18Z_MSC_RDPS_Pressure_Sfc_RLatLon0.09_PT075H.grib2 2026-05-07 21:05 498K
20260507T18Z_MSC_RDPS_RadiativeTemp_Sfc_RLatLon0.09_PT075H.grib2 2026-05-07 21:05 329K
20260507T18Z_MSC_RDPS_Rain-Accum1h_Sfc_RLatLon0.09_PT075H.grib2 2026-05-07 21:05 604K
20260507T18Z_MSC_RDPS_Rain-Accum3h_Sfc_RLatLon0.09_PT075H.grib2 2026-05-07 21:05 764K
20260507T18Z_MSC_RDPS_Rain-Accum_Sfc_RLatLon0.09_PT075H.grib2 2026-05-07 21:05 1.9M
20260507T18Z_MSC_RDPS_RelativeHumidity_AGL-2m_RLatLon0.09_PT075H.grib2 2026-05-07 21:05 1.0M
20260507T18Z_MSC_RDPS_RelativeHumidity_IsbL-0010_RLatLon0.09_PT075H.grib2 2026-05-07 21:05 680K
20260507T18Z_MSC_RDPS_RelativeHumidity_IsbL-0020_RLatLon0.09_PT075H.grib2 2026-05-07 21:05 621K
20260507T18Z_MSC_RDPS_RelativeHumidity_IsbL-0030_RLatLon0.09_PT075H.grib2 2026-05-07 21:05 621K
20260507T18Z_MSC_RDPS_RelativeHumidity_IsbL-0050_RLatLon0.09_PT075H.grib2 2026-05-07 21:05 354K
20260507T18Z_MSC_RDPS_RelativeHumidity_IsbL-0100_RLatLon0.09_PT075H.grib2 2026-05-07 21:05 280K
20260507T18Z_MSC_RDPS_RelativeHumidity_IsbL-0150_RLatLon0.09_PT075H.grib2 2026-05-07 21:05 419K
20260507T18Z_MSC_RDPS_RelativeHumidity_IsbL-0175_RLatLon0.09_PT075H.grib2 2026-05-07 21:05 475K
20260507T18Z_MSC_RDPS_RelativeHumidity_IsbL-0200_RLatLon0.09_PT075H.grib2 2026-05-07 21:05 546K
20260507T18Z_MSC_RDPS_RelativeHumidity_IsbL-0225_RLatLon0.09_PT075H.grib2 2026-05-07 21:05 620K
20260507T18Z_MSC_RDPS_RelativeHumidity_IsbL-0250_RLatLon0.09_PT075H.grib2 2026-05-07 21:05 701K
20260507T18Z_MSC_RDPS_RelativeHumidity_IsbL-0275_RLatLon0.09_PT075H.grib2 2026-05-07 21:05 728K
20260507T18Z_MSC_RDPS_RelativeHumidity_IsbL-0300_RLatLon0.09_PT075H.grib2 2026-05-07 21:05 767K
20260507T18Z_MSC_RDPS_RelativeHumidity_IsbL-0350_RLatLon0.09_PT075H.grib2 2026-05-07 21:05 778K
20260507T18Z_MSC_RDPS_RelativeHumidity_IsbL-0400_RLatLon0.09_PT075H.grib2 2026-05-07 21:05 797K
20260507T18Z_MSC_RDPS_RelativeHumidity_IsbL-0450_RLatLon0.09_PT075H.grib2 2026-05-07 21:05 811K
20260507T18Z_MSC_RDPS_RelativeHumidity_IsbL-0500_RLatLon0.09_PT075H.grib2 2026-05-07 21:05 818K
20260507T18Z_MSC_RDPS_RelativeHumidity_IsbL-0550_RLatLon0.09_PT075H.grib2 2026-05-07 21:05 834K
20260507T18Z_MSC_RDPS_RelativeHumidity_IsbL-0600_RLatLon0.09_PT075H.grib2 2026-05-07 21:05 854K
20260507T18Z_MSC_RDPS_RelativeHumidity_IsbL-0650_RLatLon0.09_PT075H.grib2 2026-05-07 21:05 870K
20260507T18Z_MSC_RDPS_RelativeHumidity_IsbL-0700_RLatLon0.09_PT075H.grib2 2026-05-07 21:05 910K
20260507T18Z_MSC_RDPS_RelativeHumidity_IsbL-0750_RLatLon0.09_PT075H.grib2 2026-05-07 21:05 948K
20260507T18Z_MSC_RDPS_RelativeHumidity_IsbL-0800_RLatLon0.09_PT075H.grib2 2026-05-07 21:05 1.0M
20260507T18Z_MSC_RDPS_RelativeHumidity_IsbL-0850_RLatLon0.09_PT075H.grib2 2026-05-07 21:05 1.0M
20260507T18Z_MSC_RDPS_RelativeHumidity_IsbL-0875_RLatLon0.09_PT075H.grib2 2026-05-07 21:05 1.1M
20260507T18Z_MSC_RDPS_RelativeHumidity_IsbL-0900_RLatLon0.09_PT075H.grib2 2026-05-07 21:05 1.1M
20260507T18Z_MSC_RDPS_RelativeHumidity_IsbL-0925_RLatLon0.09_PT075H.grib2 2026-05-07 21:05 1.1M
20260507T18Z_MSC_RDPS_RelativeHumidity_IsbL-0950_RLatLon0.09_PT075H.grib2 2026-05-07 21:05 1.1M
20260507T18Z_MSC_RDPS_RelativeHumidity_IsbL-0970_RLatLon0.09_PT075H.grib2 2026-05-07 21:05 1.0M
20260507T18Z_MSC_RDPS_RelativeHumidity_IsbL-0985_RLatLon0.09_PT075H.grib2 2026-05-07 21:05 1.0M
20260507T18Z_MSC_RDPS_RelativeHumidity_IsbL-1000_RLatLon0.09_PT075H.grib2 2026-05-07 21:05 1.0M
20260507T18Z_MSC_RDPS_RelativeHumidity_IsbL-1015_RLatLon0.09_PT075H.grib2 2026-05-07 21:05 1.0M
20260507T18Z_MSC_RDPS_Runoff-Accum_Sfc_RLatLon0.09_PT075H.grib2 2026-05-07 21:05 48K
20260507T18Z_MSC_RDPS_SWEATIndex_Sfc_RLatLon0.09_PT075H.grib2 2026-05-07 21:05 2.5M
20260507T18Z_MSC_RDPS_SeeingIndex_EAtm_RLatLon0.09_PT075H.grib2 2026-05-07 21:05 1.0M
20260507T18Z_MSC_RDPS_SensibleHeatNetFlux_Sfc_RLatLon0.09_PT075H.grib2 2026-05-07 21:05 361K
20260507T18Z_MSC_RDPS_ShowalterIndex_IsbL-0500_RLatLon0.09_PT075H.grib2 2026-05-07 21:05 2.6M
20260507T18Z_MSC_RDPS_SkyTransparencyIndex_EAtm_RLatLon0.09_PT075H.grib2 2026-05-07 21:05 702K
20260507T18Z_MSC_RDPS_Snow-Accum1h_Sfc_RLatLon0.09_PT075H.grib2 2026-05-07 21:05 414K
20260507T18Z_MSC_RDPS_Snow-Accum3h_Sfc_RLatLon0.09_PT075H.grib2 2026-05-07 21:05 421K
20260507T18Z_MSC_RDPS_Snow-Accum_Sfc_RLatLon0.09_PT075H.grib2 2026-05-07 21:05 689K
20260507T18Z_MSC_RDPS_SnowDensity_Sfc_RLatLon0.09_PT075H.grib2 2026-05-07 21:05 172K
20260507T18Z_MSC_RDPS_SnowDepth_Sfc_RLatLon0.09_PT075H.grib2 2026-05-07 21:05 620K
20260507T18Z_MSC_RDPS_SoilTemp_DBS-0to10cm_RLatLon0.09_PT075H.grib2 2026-05-07 21:05 247K
20260507T18Z_MSC_RDPS_SoilTemp_Sfc_RLatLon0.09_PT075H.grib2 2026-05-07 21:05 294K
20260507T18Z_MSC_RDPS_SoilVolumetricIceContent_Sfc_RLatLon0.09_PT075H.grib2 2026-05-07 21:05 142K
20260507T18Z_MSC_RDPS_SoilVolumetricWaterContent_DBS-0to10cm_RLatLon0.09_PT075H.grib2 2026-05-07 21:05 293K
20260507T18Z_MSC_RDPS_SoilVolumetricWaterContent_DBS-0to1cm_RLatLon0.09_PT075H.grib2 2026-05-07 21:05 343K
20260507T18Z_MSC_RDPS_SpecificHumidity_AGL-120m_RLatLon0.09_PT075H.grib2 2026-05-07 21:05 511K
20260507T18Z_MSC_RDPS_SpecificHumidity_AGL-2m_RLatLon0.09_PT075H.grib2 2026-05-07 21:05 682K
20260507T18Z_MSC_RDPS_SpecificHumidity_AGL-40m_RLatLon0.09_PT075H.grib2 2026-05-07 21:05 515K
20260507T18Z_MSC_RDPS_SpecificHumidity_AGL-80m_RLatLon0.09_PT075H.grib2 2026-05-07 21:05 512K
20260507T18Z_MSC_RDPS_SpecificHumidity_IsbL-0001_RLatLon0.09_PT075H.grib2 2026-05-07 21:05 367K
20260507T18Z_MSC_RDPS_SpecificHumidity_IsbL-0005_RLatLon0.09_PT075H.grib2 2026-05-07 21:05 360K
20260507T18Z_MSC_RDPS_SpecificHumidity_IsbL-0010_RLatLon0.09_PT075H.grib2 2026-05-07 21:05 388K
20260507T18Z_MSC_RDPS_SpecificHumidity_IsbL-0020_RLatLon0.09_PT075H.grib2 2026-05-07 21:05 484K
20260507T18Z_MSC_RDPS_SpecificHumidity_IsbL-0030_RLatLon0.09_PT075H.grib2 2026-05-07 21:05 365K
20260507T18Z_MSC_RDPS_SpecificHumidity_IsbL-0050_RLatLon0.09_PT075H.grib2 2026-05-07 21:05 366K
20260507T18Z_MSC_RDPS_SpecificHumidity_IsbL-0100_RLatLon0.09_PT075H.grib2 2026-05-07 21:05 335K
20260507T18Z_MSC_RDPS_SpecificHumidity_IsbL-0150_RLatLon0.09_PT075H.grib2 2026-05-07 21:05 446K
20260507T18Z_MSC_RDPS_SpecificHumidity_IsbL-0175_RLatLon0.09_PT075H.grib2 2026-05-07 21:05 439K
20260507T18Z_MSC_RDPS_SpecificHumidity_IsbL-0200_RLatLon0.09_PT075H.grib2 2026-05-07 21:05 474K
20260507T18Z_MSC_RDPS_SpecificHumidity_IsbL-0225_RLatLon0.09_PT075H.grib2 2026-05-07 21:05 465K
20260507T18Z_MSC_RDPS_SpecificHumidity_IsbL-0250_RLatLon0.09_PT075H.grib2 2026-05-07 21:05 576K
20260507T18Z_MSC_RDPS_SpecificHumidity_IsbL-0275_RLatLon0.09_PT075H.grib2 2026-05-07 21:05 489K
20260507T18Z_MSC_RDPS_SpecificHumidity_IsbL-0300_RLatLon0.09_PT075H.grib2 2026-05-07 21:05 460K
20260507T18Z_MSC_RDPS_SpecificHumidity_IsbL-0350_RLatLon0.09_PT075H.grib2 2026-05-07 21:05 450K
20260507T18Z_MSC_RDPS_SpecificHumidity_IsbL-0400_RLatLon0.09_PT075H.grib2 2026-05-07 21:05 535K
20260507T18Z_MSC_RDPS_SpecificHumidity_IsbL-0450_RLatLon0.09_PT075H.grib2 2026-05-07 21:05 595K
20260507T18Z_MSC_RDPS_SpecificHumidity_IsbL-0500_RLatLon0.09_PT075H.grib2 2026-05-07 21:05 533K
20260507T18Z_MSC_RDPS_SpecificHumidity_IsbL-0550_RLatLon0.09_PT075H.grib2 2026-05-07 21:05 606K
20260507T18Z_MSC_RDPS_SpecificHumidity_IsbL-0600_RLatLon0.09_PT075H.grib2 2026-05-07 21:05 661K
20260507T18Z_MSC_RDPS_SpecificHumidity_IsbL-0650_RLatLon0.09_PT075H.grib2 2026-05-07 21:05 581K
20260507T18Z_MSC_RDPS_SpecificHumidity_IsbL-0700_RLatLon0.09_PT075H.grib2 2026-05-07 21:05 632K
20260507T18Z_MSC_RDPS_SpecificHumidity_IsbL-0750_RLatLon0.09_PT075H.grib2 2026-05-07 21:05 691K
20260507T18Z_MSC_RDPS_SpecificHumidity_IsbL-0800_RLatLon0.09_PT075H.grib2 2026-05-07 21:05 773K
20260507T18Z_MSC_RDPS_SpecificHumidity_IsbL-0850_RLatLon0.09_PT075H.grib2 2026-05-07 21:05 696K
20260507T18Z_MSC_RDPS_SpecificHumidity_IsbL-0875_RLatLon0.09_PT075H.grib2 2026-05-07 21:05 712K
20260507T18Z_MSC_RDPS_SpecificHumidity_IsbL-0900_RLatLon0.09_PT075H.grib2 2026-05-07 21:05 722K
20260507T18Z_MSC_RDPS_SpecificHumidity_IsbL-0925_RLatLon0.09_PT075H.grib2 2026-05-07 21:05 727K
20260507T18Z_MSC_RDPS_SpecificHumidity_IsbL-0950_RLatLon0.09_PT075H.grib2 2026-05-07 21:05 730K
20260507T18Z_MSC_RDPS_SpecificHumidity_IsbL-0970_RLatLon0.09_PT075H.grib2 2026-05-07 21:05 726K
20260507T18Z_MSC_RDPS_SpecificHumidity_IsbL-0985_RLatLon0.09_PT075H.grib2 2026-05-07 21:05 717K
20260507T18Z_MSC_RDPS_SpecificHumidity_IsbL-1000_RLatLon0.09_PT075H.grib2 2026-05-07 21:05 711K
20260507T18Z_MSC_RDPS_SpecificHumidity_IsbL-1015_RLatLon0.09_PT075H.grib2 2026-05-07 21:05 698K
20260507T18Z_MSC_RDPS_SpecificHumidity_Sfc_RLatLon0.09_PT075H.grib2 2026-05-07 21:05 360K
20260507T18Z_MSC_RDPS_StormRelativeHelicity_EtaL-10000_RLatLon0.09_PT075H.grib2 2026-05-07 21:05 1.2M
20260507T18Z_MSC_RDPS_StormSeverityIndex_EtaL-10000_RLatLon0.09_PT075H.grib2 2026-05-07 21:05 1.2M
20260507T18Z_MSC_RDPS_Thickness_IsbL-0850to0700_RLatLon0.09_PT075H.grib2 2026-05-07 21:05 250K
20260507T18Z_MSC_RDPS_Thickness_IsbL-1000to0500_RLatLon0.09_PT075H.grib2 2026-05-07 21:05 196K
20260507T18Z_MSC_RDPS_Thickness_IsbL-1000to0850_RLatLon0.09_PT075H.grib2 2026-05-07 21:05 264K
20260507T18Z_MSC_RDPS_TotalCloudCover_Sfc_RLatLon0.09_PT075H.grib2 2026-05-07 21:05 666K
20260507T18Z_MSC_RDPS_TotalTotalsIndex_Sfc_RLatLon0.09_PT075H.grib2 2026-05-07 21:05 2.5M
20260507T18Z_MSC_RDPS_UVIndex-ClearSky_Sfc_RLatLon0.09_PT075H.grib2 2026-05-07 21:05 206K
20260507T18Z_MSC_RDPS_UVIndex_Sfc_RLatLon0.09_PT075H.grib2 2026-05-07 21:05 496K
20260507T18Z_MSC_RDPS_UpwardLongwaveRadiationFlux_NTAtm_RLatLon0.09_PT075H.grib2 2026-05-07 21:05 391K
20260507T18Z_MSC_RDPS_UpwardShortwaveRadiationFlux_NTAtm_RLatLon0.09_PT075H.grib2 2026-05-07 21:05 531K
20260507T18Z_MSC_RDPS_VerticalVelocity_IsbL-0250_RLatLon0.09_PT075H.grib2 2026-05-07 21:05 570K
20260507T18Z_MSC_RDPS_VerticalVelocity_IsbL-0500_RLatLon0.09_PT075H.grib2 2026-05-07 21:05 675K
20260507T18Z_MSC_RDPS_VerticalVelocity_IsbL-0700_RLatLon0.09_PT075H.grib2 2026-05-07 21:05 629K
20260507T18Z_MSC_RDPS_VerticalVelocity_IsbL-0850_RLatLon0.09_PT075H.grib2 2026-05-07 21:05 719K
20260507T18Z_MSC_RDPS_VerticalWindShear_EtaL-6500_RLatLon0.09_PT075H.grib2 2026-05-07 21:05 1.2M
20260507T18Z_MSC_RDPS_WindChill_Sfc_RLatLon0.09_PT075H.grib2 2026-05-07 21:05 1.2M
20260507T18Z_MSC_RDPS_WindDir_AGL-10m_RLatLon0.09_PT075H.grib2 2026-05-07 21:05 960K
20260507T18Z_MSC_RDPS_WindDir_AGL-120m_RLatLon0.09_PT075H.grib2 2026-05-07 21:05 611K
20260507T18Z_MSC_RDPS_WindDir_AGL-40m_RLatLon0.09_PT075H.grib2 2026-05-07 21:05 631K
20260507T18Z_MSC_RDPS_WindDir_AGL-80m_RLatLon0.09_PT075H.grib2 2026-05-07 21:05 619K
20260507T18Z_MSC_RDPS_WindDir_IsbL-0001_RLatLon0.09_PT075H.grib2 2026-05-07 21:05 285K
20260507T18Z_MSC_RDPS_WindDir_IsbL-0005_RLatLon0.09_PT075H.grib2 2026-05-07 21:05 359K
20260507T18Z_MSC_RDPS_WindDir_IsbL-0010_RLatLon0.09_PT075H.grib2 2026-05-07 21:05 386K
20260507T18Z_MSC_RDPS_WindDir_IsbL-0020_RLatLon0.09_PT075H.grib2 2026-05-07 21:05 423K
20260507T18Z_MSC_RDPS_WindDir_IsbL-0030_RLatLon0.09_PT075H.grib2 2026-05-07 21:05 419K
20260507T18Z_MSC_RDPS_WindDir_IsbL-0050_RLatLon0.09_PT075H.grib2 2026-05-07 21:05 434K
20260507T18Z_MSC_RDPS_WindDir_IsbL-0100_RLatLon0.09_PT075H.grib2 2026-05-07 21:05 421K
20260507T18Z_MSC_RDPS_WindDir_IsbL-0150_RLatLon0.09_PT075H.grib2 2026-05-07 21:05 414K
20260507T18Z_MSC_RDPS_WindDir_IsbL-0175_RLatLon0.09_PT075H.grib2 2026-05-07 21:05 434K
20260507T18Z_MSC_RDPS_WindDir_IsbL-0200_RLatLon0.09_PT075H.grib2 2026-05-07 21:05 452K
20260507T18Z_MSC_RDPS_WindDir_IsbL-0225_RLatLon0.09_PT075H.grib2 2026-05-07 21:05 462K
20260507T18Z_MSC_RDPS_WindDir_IsbL-0250_RLatLon0.09_PT075H.grib2 2026-05-07 21:05 466K
20260507T18Z_MSC_RDPS_WindDir_IsbL-0275_RLatLon0.09_PT075H.grib2 2026-05-07 21:05 487K
20260507T18Z_MSC_RDPS_WindDir_IsbL-0300_RLatLon0.09_PT075H.grib2 2026-05-07 21:05 485K
20260507T18Z_MSC_RDPS_WindDir_IsbL-0350_RLatLon0.09_PT075H.grib2 2026-05-07 21:05 505K
20260507T18Z_MSC_RDPS_WindDir_IsbL-0400_RLatLon0.09_PT075H.grib2 2026-05-07 21:05 525K
20260507T18Z_MSC_RDPS_WindDir_IsbL-0450_RLatLon0.09_PT075H.grib2 2026-05-07 21:05 547K
20260507T18Z_MSC_RDPS_WindDir_IsbL-0500_RLatLon0.09_PT075H.grib2 2026-05-07 21:05 566K
20260507T18Z_MSC_RDPS_WindDir_IsbL-0550_RLatLon0.09_PT075H.grib2 2026-05-07 21:05 578K
20260507T18Z_MSC_RDPS_WindDir_IsbL-0600_RLatLon0.09_PT075H.grib2 2026-05-07 21:05 602K
20260507T18Z_MSC_RDPS_WindDir_IsbL-0650_RLatLon0.09_PT075H.grib2 2026-05-07 21:05 637K
20260507T18Z_MSC_RDPS_WindDir_IsbL-0700_RLatLon0.09_PT075H.grib2 2026-05-07 21:05 680K
20260507T18Z_MSC_RDPS_WindDir_IsbL-0750_RLatLon0.09_PT075H.grib2 2026-05-07 21:05 731K
20260507T18Z_MSC_RDPS_WindDir_IsbL-0800_RLatLon0.09_PT075H.grib2 2026-05-07 21:05 797K
20260507T18Z_MSC_RDPS_WindDir_IsbL-0850_RLatLon0.09_PT075H.grib2 2026-05-07 21:05 862K
20260507T18Z_MSC_RDPS_WindDir_IsbL-0875_RLatLon0.09_PT075H.grib2 2026-05-07 21:05 886K
20260507T18Z_MSC_RDPS_WindDir_IsbL-0900_RLatLon0.09_PT075H.grib2 2026-05-07 21:05 903K
20260507T18Z_MSC_RDPS_WindDir_IsbL-0925_RLatLon0.09_PT075H.grib2 2026-05-07 21:05 910K
20260507T18Z_MSC_RDPS_WindDir_IsbL-0950_RLatLon0.09_PT075H.grib2 2026-05-07 21:05 911K
20260507T18Z_MSC_RDPS_WindDir_IsbL-0970_RLatLon0.09_PT075H.grib2 2026-05-07 21:05 915K
20260507T18Z_MSC_RDPS_WindDir_IsbL-0985_RLatLon0.09_PT075H.grib2 2026-05-07 21:05 924K
20260507T18Z_MSC_RDPS_WindDir_IsbL-1000_RLatLon0.09_PT075H.grib2 2026-05-07 21:05 940K
20260507T18Z_MSC_RDPS_WindDir_IsbL-1015_RLatLon0.09_PT075H.grib2 2026-05-07 21:05 955K
20260507T18Z_MSC_RDPS_WindGust-Max_AGL-10m_RLatLon0.09_PT075H.grib2 2026-05-07 21:05 1.0M
20260507T18Z_MSC_RDPS_WindGust-Min_AGL-10m_RLatLon0.09_PT075H.grib2 2026-05-07 21:05 1.0M
20260507T18Z_MSC_RDPS_WindGust_AGL-10m_RLatLon0.09_PT075H.grib2 2026-05-07 21:05 1.0M
20260507T18Z_MSC_RDPS_WindSpeed_AGL-10m_RLatLon0.09_PT075H.grib2 2026-05-07 21:05 842K
20260507T18Z_MSC_RDPS_WindSpeed_AGL-120m_RLatLon0.09_PT075H.grib2 2026-05-07 21:05 538K
20260507T18Z_MSC_RDPS_WindSpeed_AGL-40m_RLatLon0.09_PT075H.grib2 2026-05-07 21:05 672K
20260507T18Z_MSC_RDPS_WindSpeed_AGL-80m_RLatLon0.09_PT075H.grib2 2026-05-07 21:05 668K
20260507T18Z_MSC_RDPS_WindSpeed_IsbL-0001_RLatLon0.09_PT075H.grib2 2026-05-07 21:05 253K
20260507T18Z_MSC_RDPS_WindSpeed_IsbL-0005_RLatLon0.09_PT075H.grib2 2026-05-07 21:05 345K
20260507T18Z_MSC_RDPS_WindSpeed_IsbL-0010_RLatLon0.09_PT075H.grib2 2026-05-07 21:05 397K
20260507T18Z_MSC_RDPS_WindSpeed_IsbL-0020_RLatLon0.09_PT075H.grib2 2026-05-07 21:05 325K
20260507T18Z_MSC_RDPS_WindSpeed_IsbL-0030_RLatLon0.09_PT075H.grib2 2026-05-07 21:05 322K
20260507T18Z_MSC_RDPS_WindSpeed_IsbL-0050_RLatLon0.09_PT075H.grib2 2026-05-07 21:05 449K
20260507T18Z_MSC_RDPS_WindSpeed_IsbL-0100_RLatLon0.09_PT075H.grib2 2026-05-07 21:05 475K
20260507T18Z_MSC_RDPS_WindSpeed_IsbL-0150_RLatLon0.09_PT075H.grib2 2026-05-07 21:05 375K
20260507T18Z_MSC_RDPS_WindSpeed_IsbL-0175_RLatLon0.09_PT075H.grib2 2026-05-07 21:05 401K
20260507T18Z_MSC_RDPS_WindSpeed_IsbL-0200_RLatLon0.09_PT075H.grib2 2026-05-07 21:05 439K
20260507T18Z_MSC_RDPS_WindSpeed_IsbL-0225_RLatLon0.09_PT075H.grib2 2026-05-07 21:05 447K
20260507T18Z_MSC_RDPS_WindSpeed_IsbL-0250_RLatLon0.09_PT075H.grib2 2026-05-07 21:05 451K
20260507T18Z_MSC_RDPS_WindSpeed_IsbL-0275_RLatLon0.09_PT075H.grib2 2026-05-07 21:05 472K
20260507T18Z_MSC_RDPS_WindSpeed_IsbL-0300_RLatLon0.09_PT075H.grib2 2026-05-07 21:05 468K
20260507T18Z_MSC_RDPS_WindSpeed_IsbL-0350_RLatLon0.09_PT075H.grib2 2026-05-07 21:05 476K
20260507T18Z_MSC_RDPS_WindSpeed_IsbL-0400_RLatLon0.09_PT075H.grib2 2026-05-07 21:05 479K
20260507T18Z_MSC_RDPS_WindSpeed_IsbL-0450_RLatLon0.09_PT075H.grib2 2026-05-07 21:05 465K
20260507T18Z_MSC_RDPS_WindSpeed_IsbL-0500_RLatLon0.09_PT075H.grib2 2026-05-07 21:05 469K
20260507T18Z_MSC_RDPS_WindSpeed_IsbL-0550_RLatLon0.09_PT075H.grib2 2026-05-07 21:05 471K
20260507T18Z_MSC_RDPS_WindSpeed_IsbL-0600_RLatLon0.09_PT075H.grib2 2026-05-07 21:05 599K
20260507T18Z_MSC_RDPS_WindSpeed_IsbL-0650_RLatLon0.09_PT075H.grib2 2026-05-07 21:05 619K
20260507T18Z_MSC_RDPS_WindSpeed_IsbL-0700_RLatLon0.09_PT075H.grib2 2026-05-07 21:05 642K
20260507T18Z_MSC_RDPS_WindSpeed_IsbL-0750_RLatLon0.09_PT075H.grib2 2026-05-07 21:05 716K
20260507T18Z_MSC_RDPS_WindSpeed_IsbL-0800_RLatLon0.09_PT075H.grib2 2026-05-07 21:05 761K
20260507T18Z_MSC_RDPS_WindSpeed_IsbL-0850_RLatLon0.09_PT075H.grib2 2026-05-07 21:05 808K
20260507T18Z_MSC_RDPS_WindSpeed_IsbL-0875_RLatLon0.09_PT075H.grib2 2026-05-07 21:05 829K
20260507T18Z_MSC_RDPS_WindSpeed_IsbL-0900_RLatLon0.09_PT075H.grib2 2026-05-07 21:05 847K
20260507T18Z_MSC_RDPS_WindSpeed_IsbL-0925_RLatLon0.09_PT075H.grib2 2026-05-07 21:05 859K
20260507T18Z_MSC_RDPS_WindSpeed_IsbL-0950_RLatLon0.09_PT075H.grib2 2026-05-07 21:05 862K
20260507T18Z_MSC_RDPS_WindSpeed_IsbL-0970_RLatLon0.09_PT075H.grib2 2026-05-07 21:05 860K
20260507T18Z_MSC_RDPS_WindSpeed_IsbL-0985_RLatLon0.09_PT075H.grib2 2026-05-07 21:05 857K
20260507T18Z_MSC_RDPS_WindSpeed_IsbL-1000_RLatLon0.09_PT075H.grib2 2026-05-07 21:05 852K
20260507T18Z_MSC_RDPS_WindSpeed_IsbL-1015_RLatLon0.09_PT075H.grib2 2026-05-07 21:05 844K
20260507T18Z_MSC_RDPS_WindU_AGL-10m_RLatLon0.09_PT075H.grib2 2026-05-07 21:05 438K
20260507T18Z_MSC_RDPS_WindU_AGL-120m_RLatLon0.09_PT075H.grib2 2026-05-07 21:05 538K
20260507T18Z_MSC_RDPS_WindU_AGL-40m_RLatLon0.09_PT075H.grib2 2026-05-07 21:05 541K
20260507T18Z_MSC_RDPS_WindU_AGL-80m_RLatLon0.09_PT075H.grib2 2026-05-07 21:05 539K
20260507T18Z_MSC_RDPS_WindU_IsbL-0001_RLatLon0.09_PT075H.grib2 2026-05-07 21:05 294K
20260507T18Z_MSC_RDPS_WindU_IsbL-0005_RLatLon0.09_PT075H.grib2 2026-05-07 21:05 287K
20260507T18Z_MSC_RDPS_WindU_IsbL-0010_RLatLon0.09_PT075H.grib2 2026-05-07 21:05 298K
20260507T18Z_MSC_RDPS_WindU_IsbL-0020_RLatLon0.09_PT075H.grib2 2026-05-07 21:05 354K
20260507T18Z_MSC_RDPS_WindU_IsbL-0030_RLatLon0.09_PT075H.grib2 2026-05-07 21:05 314K
20260507T18Z_MSC_RDPS_WindU_IsbL-0050_RLatLon0.09_PT075H.grib2 2026-05-07 21:05 339K
20260507T18Z_MSC_RDPS_WindU_IsbL-0100_RLatLon0.09_PT075H.grib2 2026-05-07 21:05 431K
20260507T18Z_MSC_RDPS_WindU_IsbL-0150_RLatLon0.09_PT075H.grib2 2026-05-07 21:05 391K
20260507T18Z_MSC_RDPS_WindU_IsbL-0175_RLatLon0.09_PT075H.grib2 2026-05-07 21:05 414K
20260507T18Z_MSC_RDPS_WindU_IsbL-0200_RLatLon0.09_PT075H.grib2 2026-05-07 21:05 431K
20260507T18Z_MSC_RDPS_WindU_IsbL-0225_RLatLon0.09_PT075H.grib2 2026-05-07 21:05 439K
20260507T18Z_MSC_RDPS_WindU_IsbL-0250_RLatLon0.09_PT075H.grib2 2026-05-07 21:05 343K
20260507T18Z_MSC_RDPS_WindU_IsbL-0275_RLatLon0.09_PT075H.grib2 2026-05-07 21:05 359K
20260507T18Z_MSC_RDPS_WindU_IsbL-0300_RLatLon0.09_PT075H.grib2 2026-05-07 21:05 354K
20260507T18Z_MSC_RDPS_WindU_IsbL-0350_RLatLon0.09_PT075H.grib2 2026-05-07 21:05 360K
20260507T18Z_MSC_RDPS_WindU_IsbL-0400_RLatLon0.09_PT075H.grib2 2026-05-07 21:05 467K
20260507T18Z_MSC_RDPS_WindU_IsbL-0450_RLatLon0.09_PT075H.grib2 2026-05-07 21:05 470K
20260507T18Z_MSC_RDPS_WindU_IsbL-0500_RLatLon0.09_PT075H.grib2 2026-05-07 21:05 474K
20260507T18Z_MSC_RDPS_WindU_IsbL-0550_RLatLon0.09_PT075H.grib2 2026-05-07 21:05 460K
20260507T18Z_MSC_RDPS_WindU_IsbL-0600_RLatLon0.09_PT075H.grib2 2026-05-07 21:05 470K
20260507T18Z_MSC_RDPS_WindU_IsbL-0650_RLatLon0.09_PT075H.grib2 2026-05-07 21:05 488K
20260507T18Z_MSC_RDPS_WindU_IsbL-0700_RLatLon0.09_PT075H.grib2 2026-05-07 21:05 511K
20260507T18Z_MSC_RDPS_WindU_IsbL-0750_RLatLon0.09_PT075H.grib2 2026-05-07 21:05 538K
20260507T18Z_MSC_RDPS_WindU_IsbL-0800_RLatLon0.09_PT075H.grib2 2026-05-07 21:05 575K
20260507T18Z_MSC_RDPS_WindU_IsbL-0850_RLatLon0.09_PT075H.grib2 2026-05-07 21:05 622K
20260507T18Z_MSC_RDPS_WindU_IsbL-0875_RLatLon0.09_PT075H.grib2 2026-05-07 21:05 776K
20260507T18Z_MSC_RDPS_WindU_IsbL-0900_RLatLon0.09_PT075H.grib2 2026-05-07 21:05 792K
20260507T18Z_MSC_RDPS_WindU_IsbL-0925_RLatLon0.09_PT075H.grib2 2026-05-07 21:05 661K
20260507T18Z_MSC_RDPS_WindU_IsbL-0950_RLatLon0.09_PT075H.grib2 2026-05-07 21:05 801K
20260507T18Z_MSC_RDPS_WindU_IsbL-0970_RLatLon0.09_PT075H.grib2 2026-05-07 21:05 796K
20260507T18Z_MSC_RDPS_WindU_IsbL-0985_RLatLon0.09_PT075H.grib2 2026-05-07 21:05 794K
20260507T18Z_MSC_RDPS_WindU_IsbL-1000_RLatLon0.09_PT075H.grib2 2026-05-07 21:05 790K
20260507T18Z_MSC_RDPS_WindU_IsbL-1015_RLatLon0.09_PT075H.grib2 2026-05-07 21:05 831K
20260507T18Z_MSC_RDPS_WindV_AGL-10m_RLatLon0.09_PT075H.grib2 2026-05-07 21:05 434K
20260507T18Z_MSC_RDPS_WindV_AGL-120m_RLatLon0.09_PT075H.grib2 2026-05-07 21:05 532K
20260507T18Z_MSC_RDPS_WindV_AGL-40m_RLatLon0.09_PT075H.grib2 2026-05-07 21:05 535K
20260507T18Z_MSC_RDPS_WindV_AGL-80m_RLatLon0.09_PT075H.grib2 2026-05-07 21:05 533K
20260507T18Z_MSC_RDPS_WindV_IsbL-0001_RLatLon0.09_PT075H.grib2 2026-05-07 21:05 248K
20260507T18Z_MSC_RDPS_WindV_IsbL-0005_RLatLon0.09_PT075H.grib2 2026-05-07 21:05 373K
20260507T18Z_MSC_RDPS_WindV_IsbL-0010_RLatLon0.09_PT075H.grib2 2026-05-07 21:05 298K
20260507T18Z_MSC_RDPS_WindV_IsbL-0020_RLatLon0.09_PT075H.grib2 2026-05-07 21:05 316K
20260507T18Z_MSC_RDPS_WindV_IsbL-0030_RLatLon0.09_PT075H.grib2 2026-05-07 21:05 314K
20260507T18Z_MSC_RDPS_WindV_IsbL-0050_RLatLon0.09_PT075H.grib2 2026-05-07 21:05 338K
20260507T18Z_MSC_RDPS_WindV_IsbL-0100_RLatLon0.09_PT075H.grib2 2026-05-07 21:05 427K
20260507T18Z_MSC_RDPS_WindV_IsbL-0150_RLatLon0.09_PT075H.grib2 2026-05-07 21:05 366K
20260507T18Z_MSC_RDPS_WindV_IsbL-0175_RLatLon0.09_PT075H.grib2 2026-05-07 21:05 413K
20260507T18Z_MSC_RDPS_WindV_IsbL-0200_RLatLon0.09_PT075H.grib2 2026-05-07 21:05 333K
20260507T18Z_MSC_RDPS_WindV_IsbL-0225_RLatLon0.09_PT075H.grib2 2026-05-07 21:05 338K
20260507T18Z_MSC_RDPS_WindV_IsbL-0250_RLatLon0.09_PT075H.grib2 2026-05-07 21:05 366K
20260507T18Z_MSC_RDPS_WindV_IsbL-0275_RLatLon0.09_PT075H.grib2 2026-05-07 21:05 381K
20260507T18Z_MSC_RDPS_WindV_IsbL-0300_RLatLon0.09_PT075H.grib2 2026-05-07 21:05 377K
20260507T18Z_MSC_RDPS_WindV_IsbL-0350_RLatLon0.09_PT075H.grib2 2026-05-07 21:05 358K
20260507T18Z_MSC_RDPS_WindV_IsbL-0400_RLatLon0.09_PT075H.grib2 2026-05-07 21:05 361K
20260507T18Z_MSC_RDPS_WindV_IsbL-0450_RLatLon0.09_PT075H.grib2 2026-05-07 21:05 466K
20260507T18Z_MSC_RDPS_WindV_IsbL-0500_RLatLon0.09_PT075H.grib2 2026-05-07 21:05 470K
20260507T18Z_MSC_RDPS_WindV_IsbL-0550_RLatLon0.09_PT075H.grib2 2026-05-07 21:05 473K
20260507T18Z_MSC_RDPS_WindV_IsbL-0600_RLatLon0.09_PT075H.grib2 2026-05-07 21:05 483K
20260507T18Z_MSC_RDPS_WindV_IsbL-0650_RLatLon0.09_PT075H.grib2 2026-05-07 21:05 483K
20260507T18Z_MSC_RDPS_WindV_IsbL-0700_RLatLon0.09_PT075H.grib2 2026-05-07 21:05 506K
20260507T18Z_MSC_RDPS_WindV_IsbL-0750_RLatLon0.09_PT075H.grib2 2026-05-07 21:05 533K
20260507T18Z_MSC_RDPS_WindV_IsbL-0800_RLatLon0.09_PT075H.grib2 2026-05-07 21:05 570K
20260507T18Z_MSC_RDPS_WindV_IsbL-0850_RLatLon0.09_PT075H.grib2 2026-05-07 21:05 617K
20260507T18Z_MSC_RDPS_WindV_IsbL-0875_RLatLon0.09_PT075H.grib2 2026-05-07 21:05 636K
20260507T18Z_MSC_RDPS_WindV_IsbL-0900_RLatLon0.09_PT075H.grib2 2026-05-07 21:05 650K
20260507T18Z_MSC_RDPS_WindV_IsbL-0925_RLatLon0.09_PT075H.grib2 2026-05-07 21:05 657K
20260507T18Z_MSC_RDPS_WindV_IsbL-0950_RLatLon0.09_PT075H.grib2 2026-05-07 21:05 797K
20260507T18Z_MSC_RDPS_WindV_IsbL-0970_RLatLon0.09_PT075H.grib2 2026-05-07 21:05 793K
20260507T18Z_MSC_RDPS_WindV_IsbL-0985_RLatLon0.09_PT075H.grib2 2026-05-07 21:05 789K
20260507T18Z_MSC_RDPS_WindV_IsbL-1000_RLatLon0.09_PT075H.grib2 2026-05-07 21:05 831K
20260507T18Z_MSC_RDPS_WindV_IsbL-1015_RLatLon0.09_PT075H.grib2 2026-05-07 21:05 826K